Time,TemperatureF,DewpointF,PressureIn,WindDirection,WindDirectionDegrees,WindSpeedMPH,WindSpeedGustMPH,Humidity,HourlyPrecipIn,Conditions,Clouds,dailyrainin,SoftwareType,DateUTC
2013-06-19 00:00:00,65.1,42.7,29.15,ESE,112,3.5,3.5,44,0.00,CLR,,0.00,WeatherDisplay:10.37,2013-06-19 05:00:00,
2013-06-19 00:01:00,65.1,42.7,29.15,East,90,3.5,3.5,44,0.00,CLR,,0.00,WeatherDisplay:10.37,2013-06-19 05:01:00,
2013-06-19 00:02:00,65.1,42.7,29.15,East,90,3.5,3.5,44,0.00,CLR,,0.00,WeatherDisplay:10.37,2013-06-19 05:02:00,
2013-06-19 00:04:00,64.9,42.5,29.15,SSE,158,3.5,0.0,44,0.00,CLR,,0.00,WeatherDisplay:10.37,2013-06-19 05:04:00,
2013-06-19 00:06:00,64.9,42.5,29.15,ESE,112,3.5,3.5,44,0.00,CLR,,0.00,WeatherDisplay:10.37,2013-06-19 05:06:00,
2013-06-19 00:07:00,64.9,42.5,29.15,North,0,2.3,2.3,44,0.00,CLR,,0.00,WeatherDisplay:10.37,2013-06-19 05:07:00,
2013-06-19 00:11:00,64.8,42.3,29.15,SE,135,4.6,4.6,44,0.00,CLR,,0.00,WeatherDisplay:10.37,2013-06-19 05:11:00,
2013-06-19 00:12:00,64.8,42.3,29.15,NNE,22,3.5,3.5,44,0.00,CLR,,0.00,WeatherDisplay:10.37,2013-06-19 05:12:00,
2013-06-19 00:14:00,64.8,42.3,29.15,ESE,112,2.3,2.3,44,0.00,CLR,,0.00,WeatherDisplay:10.37,2013-06-19 05:14:00,
2013-06-19 00:17:00,64.6,42.2,29.15,ESE,112,3.5,3.5,44,0.00,CLR,,0.00,WeatherDisplay:10.37,2013-06-19 05:17:00,
2013-06-19 00:18:00,64.6,42.2,29.18,NE,45,3.5,3.5,44,0.00,CLR,,0.00,WeatherDisplay:10.37,2013-06-19 05:18:00,
2013-06-19 00:19:00,64.6,42.2,29.18,ENE,68,3.5,3.5,44,0.00,CLR,,0.00,WeatherDisplay:10.37,2013-06-19 05:19:00,
2013-06-19 00:20:00,64.6,42.2,29.18,SW,225,5.4,5.4,44,0.00,CLR,,0.00,WeatherDisplay:10.37,2013-06-19 05:20:00,
2013-06-19 00:23:00,64.6,42.7,29.18,NNE,22,4.0,4.0,45,0.00,CLR,,0.00,WeatherDisplay:10.37,2013-06-19 05:23:00,
2013-06-19 00:24:00,64.4,42.6,29.18,NE,45,5.8,5.8,45,0.00,CLR,,0.00,WeatherDisplay:10.37,2013-06-19 05:24:00,
2013-06-19 00:25:00,64.4,42.6,29.18,ENE,68,4.6,4.6,45,0.00,CLR,,0.00,WeatherDisplay:10.37,2013-06-19 05:25:00,
2013-06-19 00:29:00,64.4,42.6,29.18,NW,315,4.6,4.6,45,0.00,CLR,,0.00,WeatherDisplay:10.37,2013-06-19 05:29:00,
2013-06-19 00:31:00,64.4,42.6,29.18,ESE,112,3.5,3.5,45,0.00,CLR,,0.00,WeatherDisplay:10.37,2013-06-19 05:31:00,
2013-06-19 00:32:00,64.4,42.6,29.18,ESE,112,4.6,4.6,45,0.00,CLR,,0.00,WeatherDisplay:10.37,2013-06-19 05:32:00,
2013-06-19 00:36:00,64.2,42.4,29.18,East,90,2.6,2.6,45,0.00,CLR,,0.00,WeatherDisplay:10.37,2013-06-19 05:36:00,
2013-06-19 00:37:00,64.2,42.4,29.18,ESE,112,2.3,2.3,45,0.00,CLR,,0.00,WeatherDisplay:10.37,2013-06-19 05:37:00,
2013-06-19 00:38:00,64.2,42.4,29.18,ENE,68,3.6,3.6,45,0.00,CLR,,0.00,WeatherDisplay:10.37,2013-06-19 05:38:00,
2013-06-19 00:39:00,64.1,42.3,29.18,ENE,76,2.0,0.0,45,0.00,CLR,,0.00,WeatherDisplay:10.37,2013-06-19 05:39:00,
2013-06-19 00:40:00,64.0,42.3,29.18,ESE,112,3.5,3.5,45,0.00,CLR,,0.00,WeatherDisplay:10.37,2013-06-19 05:40:00,
2013-06-19 00:42:00,64.0,42.3,29.18,East,90,4.6,4.6,45,0.00,CLR,,0.00,WeatherDisplay:10.37,2013-06-19 05:42:00,
2013-06-19 00:44:00,63.9,42.1,29.18,ENE,68,3.5,3.5,45,0.00,CLR,,0.00,WeatherDisplay:10.37,2013-06-19 05:44:00,
2013-06-19 00:45:00,63.9,42.1,29.18,ESE,112,2.9,2.9,45,0.00,CLR,,0.00,WeatherDisplay:10.37,2013-06-19 05:45:00,
2013-06-19 00:46:00,63.9,42.1,29.18,East,90,3.5,3.5,45,0.00,CLR,,0.00,WeatherDisplay:10.37,2013-06-19 05:46:00,
2013-06-19 00:50:00,63.9,42.7,29.18,NNE,22,4.6,4.6,46,0.00,CLR,,0.00,WeatherDisplay:10.37,2013-06-19 05:50:00,
2013-06-19 00:51:00,63.7,42.5,29.18,NNE,22,5.8,5.8,46,0.00,CLR,,0.00,WeatherDisplay:10.37,2013-06-19 05:51:00,
2013-06-19 00:53:00,63.7,42.5,29.18,ESE,112,6.9,6.9,46,0.00,CLR,,0.00,WeatherDisplay:10.37,2013-06-19 05:53:00,
2013-06-19 00:54:00,63.7,42.5,29.18,ENE,68,3.5,3.5,46,0.00,CLR,,0.00,WeatherDisplay:10.37,2013-06-19 05:54:00,
2013-06-19 00:55:00,63.5,42.3,29.18,ESE,112,3.5,3.5,46,0.00,CLR,,0.00,WeatherDisplay:10.37,2013-06-19 05:55:00,
2013-06-19 00:57:00,63.5,42.3,29.18,NNE,22,3.5,3.5,46,0.00,CLR,,0.00,WeatherDisplay:10.37,2013-06-19 05:57:00,
2013-06-19 00:59:00,63.5,42.3,29.18,ENE,68,3.5,3.5,46,0.00,CLR,,0.00,WeatherDisplay:10.37,2013-06-19 05:59:00,
2013-06-19 01:01:00,63.5,42.3,29.18,East,90,6.9,6.9,46,0.00,CLR,,0.00,WeatherDisplay:10.37,2013-06-19 06:01:00,
2013-06-19 01:04:00,63.3,42.2,29.15,East,90,4.6,4.6,46,0.00,CLR,,0.00,WeatherDisplay:10.37,2013-06-19 06:04:00,
2013-06-19 01:05:00,63.3,42.2,29.15,ESE,112,6.9,6.9,46,0.00,CLR,,0.00,WeatherDisplay:10.37,2013-06-19 06:05:00,
2013-06-19 01:07:00,63.3,42.2,29.15,East,90,5.8,5.8,46,0.00,CLR,,0.00,WeatherDisplay:10.37,2013-06-19 06:07:00,
2013-06-19 01:09:00,63.3,42.2,29.15,ENE,68,4.6,4.6,46,0.00,CLR,,0.00,WeatherDisplay:10.37,2013-06-19 06:09:00,
2013-06-19 01:10:00,63.1,42.0,29.15,ESE,112,4.6,4.6,46,0.00,CLR,,0.00,WeatherDisplay:10.37,2013-06-19 06:10:00,
2013-06-19 01:12:00,63.1,42.0,29.15,ENE,68,4.6,4.6,46,0.00,CLR,,0.00,WeatherDisplay:10.37,2013-06-19 06:12:00,
2013-06-19 01:13:00,63.1,42.0,29.15,SSE,158,4.6,4.6,46,0.00,CLR,,0.00,WeatherDisplay:10.37,2013-06-19 06:13:00,
2013-06-19 01:14:00,63.1,42.0,29.15,East,90,3.5,3.8,46,0.00,CLR,,0.00,WeatherDisplay:10.37,2013-06-19 06:14:00,
2013-06-19 01:15:00,63.1,42.0,29.15,ESE,112,4.6,4.6,46,0.00,CLR,,0.00,WeatherDisplay:10.37,2013-06-19 06:15:00,
2013-06-19 01:17:00,63.1,42.0,29.15,NE,45,3.5,3.8,46,0.00,CLR,,0.00,WeatherDisplay:10.37,2013-06-19 06:17:00,
2013-06-19 01:18:00,63.1,42.0,29.18,SE,135,2.3,2.3,46,0.00,CLR,,0.00,WeatherDisplay:10.37,2013-06-19 06:18:00,
2013-06-19 01:19:00,63.0,41.8,29.18,ENE,68,3.5,3.6,46,0.00,CLR,,0.00,WeatherDisplay:10.37,2013-06-19 06:19:00,
2013-06-19 01:20:00,63.0,41.8,29.18,East,90,4.6,4.6,46,0.00,CLR,,0.00,WeatherDisplay:10.37,2013-06-19 06:20:00,
2013-06-19 01:21:00,63.0,41.8,29.18,ENE,68,3.5,3.5,46,0.00,CLR,,0.00,WeatherDisplay:10.37,2013-06-19 06:21:00,
2013-06-19 01:24:00,62.8,41.7,29.18,ESE,112,4.6,4.6,46,0.00,CLR,,0.00,WeatherDisplay:10.37,2013-06-19 06:24:00,
2013-06-19 01:25:00,62.8,41.7,29.18,NE,45,3.5,3.5,46,0.00,CLR,,0.00,WeatherDisplay:10.37,2013-06-19 06:25:00,
2013-06-19 01:26:00,62.8,41.7,29.18,ENE,68,4.7,4.7,46,0.00,CLR,,0.00,WeatherDisplay:10.37,2013-06-19 06:26:00,
2013-06-19 01:27:00,62.8,41.7,29.18,ENE,68,4.6,4.6,46,0.00,CLR,,0.00,WeatherDisplay:10.37,2013-06-19 06:27:00,
2013-06-19 01:29:00,62.6,41.5,29.18,ENE,68,3.8,3.8,46,0.00,CLR,,0.00,WeatherDisplay:10.37,2013-06-19 06:29:00,
2013-06-19 01:32:00,62.6,41.5,29.18,ESE,112,5.8,5.8,46,0.00,CLR,,0.00,WeatherDisplay:10.37,2013-06-19 06:32:00,
2013-06-19 01:33:00,62.6,41.5,29.18,ENE,68,3.5,3.5,46,0.00,CLR,,0.00,WeatherDisplay:10.37,2013-06-19 06:33:00,
2013-06-19 01:34:00,62.6,41.5,29.18,East,90,3.5,3.5,46,0.00,CLR,,0.00,WeatherDisplay:10.37,2013-06-19 06:34:00,
2013-06-19 01:35:00,62.6,41.5,29.18,NNE,22,3.5,3.5,46,0.00,CLR,,0.00,WeatherDisplay:10.37,2013-06-19 06:35:00,
2013-06-19 01:39:00,62.4,41.9,29.18,ENE,68,2.3,2.3,47,0.00,CLR,,0.00,WeatherDisplay:10.37,2013-06-19 06:39:00,
2013-06-19 01:40:00,62.4,41.9,29.18,East,90,3.6,3.6,47,0.00,CLR,,0.00,WeatherDisplay:10.37,2013-06-19 06:40:00,
2013-06-19 01:43:00,62.2,41.7,29.18,NNE,22,2.6,2.6,47,0.00,CLR,,0.00,WeatherDisplay:10.37,2013-06-19 06:43:00,
2013-06-19 01:44:00,62.2,41.7,29.18,ENE,76,2.0,0.0,47,0.00,CLR,,0.00,WeatherDisplay:10.37,2013-06-19 06:44:00,
2013-06-19 01:45:00,62.2,41.7,29.18,East,90,4.6,4.6,47,0.00,CLR,,0.00,WeatherDisplay:10.37,2013-06-19 06:45:00,
2013-06-19 01:46:00,62.2,41.7,29.18,ENE,68,2.6,2.6,47,0.00,CLR,,0.00,WeatherDisplay:10.37,2013-06-19 06:46:00,
2013-06-19 01:48:00,62.1,42.1,29.18,NE,45,3.5,3.5,48,0.00,CLR,,0.00,WeatherDisplay:10.37,2013-06-19 06:48:00,
2013-06-19 01:49:00,62.1,42.1,29.18,East,90,4.3,4.3,48,0.00,CLR,,0.00,WeatherDisplay:10.37,2013-06-19 06:49:00,
2013-06-19 01:51:00,61.9,42.0,29.18,ENE,68,4.6,4.6,48,0.00,CLR,,0.00,WeatherDisplay:10.37,2013-06-19 06:51:00,
2013-06-19 01:52:00,61.9,42.0,29.18,NE,45,2.3,2.3,48,0.00,CLR,,0.00,WeatherDisplay:10.37,2013-06-19 06:52:00,
2013-06-19 01:53:00,61.9,42.0,29.18,East,90,2.3,2.4,48,0.00,CLR,,0.00,WeatherDisplay:10.37,2013-06-19 06:53:00,
2013-06-19 01:54:00,61.9,42.0,29.18,East,79,2.0,0.0,48,0.00,CLR,,0.00,WeatherDisplay:10.37,2013-06-19 06:54:00,
2013-06-19 01:55:00,61.9,42.0,29.18,East,90,3.1,3.1,48,0.00,CLR,,0.00,WeatherDisplay:10.37,2013-06-19 06:55:00,
2013-06-19 01:56:00,61.9,42.5,29.18,ENE,68,3.5,3.5,49,0.00,CLR,,0.00,WeatherDisplay:10.37,2013-06-19 06:56:00,
2013-06-19 01:58:00,61.7,41.8,29.18,ESE,112,3.5,3.5,48,0.00,CLR,,0.00,WeatherDisplay:10.37,2013-06-19 06:58:00,
2013-06-19 01:59:00,61.7,41.8,29.18,ESE,112,3.5,3.5,48,0.00,CLR,,0.00,WeatherDisplay:10.37,2013-06-19 06:59:00,
2013-06-19 02:00:00,61.7,42.3,29.18,East,90,3.5,0.0,49,0.00,CLR,,0.00,WeatherDisplay:10.37,2013-06-19 07:00:00,
2013-06-19 02:01:00,61.7,42.3,29.18,ENE,68,3.5,3.5,49,0.00,CLR,,0.00,WeatherDisplay:10.37,2013-06-19 07:01:00,
2013-06-19 02:02:00,61.7,42.3,29.18,NE,45,2.9,2.9,49,0.00,CLR,,0.00,WeatherDisplay:10.37,2013-06-19 07:02:00,
2013-06-19 02:05:00,61.5,42.2,29.20,NE,45,2.3,2.3,49,0.00,CLR,,0.00,WeatherDisplay:10.37,2013-06-19 07:05:00,
2013-06-19 02:06:00,61.5,42.2,29.20,ENE,68,2.3,2.3,49,0.00,CLR,,0.00,WeatherDisplay:10.37,2013-06-19 07:06:00,
2013-06-19 02:07:00,61.5,42.2,29.20,East,90,1.6,1.6,49,0.00,CLR,,0.00,WeatherDisplay:10.37,2013-06-19 07:07:00,
2013-06-19 02:09:00,61.3,42.0,29.20,SE,135,2.9,2.9,49,0.00,CLR,,0.00,WeatherDisplay:10.37,2013-06-19 07:09:00,
2013-06-19 02:11:00,61.3,42.0,29.20,East,90,2.3,2.4,49,0.00,CLR,,0.00,WeatherDisplay:10.37,2013-06-19 07:11:00,
2013-06-19 02:12:00,61.3,42.0,29.20,East,90,2.2,2.2,49,0.00,CLR,,0.00,WeatherDisplay:10.37,2013-06-19 07:12:00,
2013-06-19 02:13:00,61.3,42.0,29.20,East,90,4.3,4.3,49,0.00,CLR,,0.00,WeatherDisplay:10.37,2013-06-19 07:13:00,
2013-06-19 02:14:00,61.3,42.0,29.20,ENE,68,4.6,4.6,49,0.00,CLR,,0.00,WeatherDisplay:10.37,2013-06-19 07:14:00,
2013-06-19 02:16:00,61.3,43.0,29.20,NNW,338,4.6,4.6,51,0.00,CLR,,0.00,WeatherDisplay:10.37,2013-06-19 07:16:00,
2013-06-19 02:18:00,61.2,42.4,29.18,SE,135,4.6,4.6,50,0.00,CLR,,0.00,WeatherDisplay:10.37,2013-06-19 07:18:00,
2013-06-19 02:19:00,61.2,42.4,29.18,ENE,68,5.8,5.8,50,0.00,CLR,,0.00,WeatherDisplay:10.37,2013-06-19 07:19:00,
2013-06-19 02:20:00,61.2,42.9,29.18,NNE,22,4.6,4.6,51,0.00,CLR,,0.00,WeatherDisplay:10.37,2013-06-19 07:20:00,
2013-06-19 02:21:00,61.2,43.4,29.18,East,90,4.6,4.6,52,0.00,CLR,,0.00,WeatherDisplay:10.37,2013-06-19 07:21:00,
2013-06-19 02:23:00,61.2,43.4,29.18,East,90,3.5,3.5,52,0.00,CLR,,0.00,WeatherDisplay:10.37,2013-06-19 07:23:00,
2013-06-19 02:24:00,61.0,42.7,29.18,NE,45,3.8,3.8,51,0.00,CLR,,0.00,WeatherDisplay:10.37,2013-06-19 07:24:00,
2013-06-19 02:25:00,61.0,42.7,29.18,East,90,5.6,5.6,51,0.00,CLR,,0.00,WeatherDisplay:10.37,2013-06-19 07:25:00,
2013-06-19 02:26:00,61.0,42.7,29.18,ENE,68,5.8,5.8,51,0.00,CLR,,0.00,WeatherDisplay:10.37,2013-06-19 07:26:00,
2013-06-19 02:27:00,61.0,43.2,29.18,ENE,68,3.8,3.8,52,0.00,CLR,,0.00,WeatherDisplay:10.37,2013-06-19 07:27:00,
2013-06-19 02:29:00,61.0,42.7,29.18,ENE,72,3.0,0.0,51,0.00,CLR,,0.00,WeatherDisplay:10.37,2013-06-19 07:29:00,
2013-06-19 02:30:00,61.0,42.7,29.18,ENE,68,5.8,5.8,51,0.00,CLR,,0.00,WeatherDisplay:10.37,2013-06-19 07:30:00,
2013-06-19 02:31:00,61.0,43.2,29.18,NNE,22,5.8,5.8,52,0.00,CLR,,0.00,WeatherDisplay:10.37,2013-06-19 07:31:00,
2013-06-19 02:34:00,61.0,43.2,29.18,NE,45,3.5,3.5,52,0.00,CLR,,0.00,WeatherDisplay:10.37,2013-06-19 07:34:00,
2013-06-19 02:35:00,60.8,42.5,29.18,NNE,22,3.5,3.5,51,0.00,CLR,,0.00,WeatherDisplay:10.37,2013-06-19 07:35:00,
2013-06-19 02:36:00,60.8,43.1,29.18,ENE,68,3.5,3.5,52,0.00,CLR,,0.00,WeatherDisplay:10.37,2013-06-19 07:36:00,
2013-06-19 02:38:00,60.8,42.5,29.18,NE,45,3.5,3.5,51,0.00,CLR,,0.00,WeatherDisplay:10.37,2013-06-19 07:38:00,
2013-06-19 02:39:00,60.8,42.5,29.18,ENE,68,3.5,3.5,51,0.00,CLR,,0.00,WeatherDisplay:10.37,2013-06-19 07:39:00,
2013-06-19 02:41:00,60.6,42.4,29.18,ESE,112,3.5,3.5,51,0.00,CLR,,0.00,WeatherDisplay:10.37,2013-06-19 07:41:00,
2013-06-19 02:43:00,60.6,42.4,29.18,ENE,68,2.6,2.6,51,0.00,CLR,,0.00,WeatherDisplay:10.37,2013-06-19 07:43:00,
2013-06-19 02:45:00,60.6,42.4,29.18,ENE,68,2.3,2.3,51,0.00,CLR,,0.00,WeatherDisplay:10.37,2013-06-19 07:45:00,
2013-06-19 02:47:00,60.4,42.2,29.18,NE,45,2.3,2.3,51,0.00,CLR,,0.00,WeatherDisplay:10.37,2013-06-19 07:47:00,
2013-06-19 02:48:00,60.4,42.2,29.18,NE,45,2.4,2.4,51,0.00,CLR,,0.00,WeatherDisplay:10.37,2013-06-19 07:48:00,
2013-06-19 02:50:00,60.4,42.2,29.18,ENE,68,2.3,2.6,51,0.00,CLR,,0.00,WeatherDisplay:10.37,2013-06-19 07:50:00,
2013-06-19 02:52:00,60.4,42.2,29.18,ENE,68,3.5,3.5,51,0.00,CLR,,0.00,WeatherDisplay:10.37,2013-06-19 07:52:00,
2013-06-19 02:53:00,60.4,42.2,29.18,ENE,68,2.3,2.3,51,0.00,CLR,,0.00,WeatherDisplay:10.37,2013-06-19 07:53:00,
2013-06-19 02:54:00,60.4,42.2,29.18,NE,49,1.0,0.0,51,0.00,CLR,,0.00,WeatherDisplay:10.37,2013-06-19 07:54:00,
2013-06-19 02:55:00,60.4,42.2,29.18,NNE,22,1.4,1.4,51,0.00,CLR,,0.00,WeatherDisplay:10.37,2013-06-19 07:55:00,
2013-06-19 02:57:00,60.3,42.6,29.18,ENE,68,2.3,2.3,52,0.00,CLR,,0.00,WeatherDisplay:10.37,2013-06-19 07:57:00,
2013-06-19 02:58:00,60.3,42.0,29.18,ENE,68,2.3,2.3,51,0.00,CLR,,0.00,WeatherDisplay:10.37,2013-06-19 07:58:00,
2013-06-19 02:59:00,60.3,42.0,29.18,NE,50,1.0,0.0,51,0.00,CLR,,0.00,WeatherDisplay:10.37,2013-06-19 07:59:00,
2013-06-19 03:00:00,60.1,41.9,29.18,NNE,22,2.6,2.6,51,0.00,CLR,,0.00,WeatherDisplay:10.37,2013-06-19 08:00:00,
2013-06-19 03:01:00,60.1,41.9,29.18,NNE,22,3.8,3.8,51,0.00,CLR,,0.00,WeatherDisplay:10.37,2013-06-19 08:01:00,
2013-06-19 03:03:00,60.1,42.4,29.20,NNE,22,2.3,2.3,52,0.00,CLR,,0.00,WeatherDisplay:10.37,2013-06-19 08:03:00,
2013-06-19 03:04:00,60.1,42.4,29.20,NNE,22,2.3,2.3,52,0.00,CLR,,0.00,WeatherDisplay:10.37,2013-06-19 08:04:00,
2013-06-19 03:06:00,59.9,42.2,29.20,NNE,22,2.0,2.0,52,0.00,CLR,,0.00,WeatherDisplay:10.37,2013-06-19 08:06:00,
2013-06-19 03:07:00,59.9,42.2,29.20,NNE,22,2.3,2.3,52,0.00,CLR,,0.00,WeatherDisplay:10.37,2013-06-19 08:07:00,
2013-06-19 03:08:00,59.9,42.2,29.20,ENE,68,4.6,4.6,52,0.00,CLR,,0.00,WeatherDisplay:10.37,2013-06-19 08:08:00,
2013-06-19 03:09:00,59.8,42.1,29.20,NE,43,2.0,0.0,52,0.00,CLR,,0.00,WeatherDisplay:10.37,2013-06-19 08:09:00,
2013-06-19 03:10:00,59.7,42.6,29.20,ENE,68,2.3,2.3,53,0.00,CLR,,0.00,WeatherDisplay:10.37,2013-06-19 08:10:00,
2013-06-19 03:13:00,59.7,42.1,29.20,East,90,0.0,0.0,52,0.00,CLR,,0.00,WeatherDisplay:10.37,2013-06-19 08:13:00,
2013-06-19 03:14:00,59.7,42.1,29.20,East,90,0.0,0.0,52,0.00,CLR,,0.00,WeatherDisplay:10.37,2013-06-19 08:14:00,
2013-06-19 03:15:00,59.7,42.1,29.20,North,0,1.1,0.0,52,0.00,CLR,,0.00,WeatherDisplay:10.37,2013-06-19 08:15:00,
2013-06-19 03:16:00,59.5,41.9,29.20,NNE,22,0.0,0.0,52,0.00,CLR,,0.00,WeatherDisplay:10.37,2013-06-19 08:16:00,
2013-06-19 03:19:00,59.5,42.4,29.18,ENE,68,2.3,2.3,53,0.00,CLR,,0.00,WeatherDisplay:10.37,2013-06-19 08:19:00,
2013-06-19 03:21:00,59.4,41.7,29.18,NE,45,1.1,1.1,52,0.00,CLR,,0.00,WeatherDisplay:10.37,2013-06-19 08:21:00,
2013-06-19 03:22:00,59.4,41.7,29.18,NE,45,1.1,0.0,52,0.00,CLR,,0.00,WeatherDisplay:10.37,2013-06-19 08:22:00,
2013-06-19 03:24:00,59.4,42.2,29.18,ENE,58,0.0,0.0,53,0.00,CLR,,0.00,WeatherDisplay:10.37,2013-06-19 08:24:00,
2013-06-19 03:26:00,59.4,42.2,29.18,ENE,68,2.4,2.4,53,0.00,CLR,,0.00,WeatherDisplay:10.37,2013-06-19 08:26:00,
2013-06-19 03:27:00,59.4,42.2,29.18,ENE,68,2.6,2.6,53,0.00,CLR,,0.00,WeatherDisplay:10.37,2013-06-19 08:27:00,
2013-06-19 03:29:00,59.2,42.0,29.18,NE,53,2.0,0.0,53,0.00,CLR,,0.00,WeatherDisplay:10.37,2013-06-19 08:29:00,
2013-06-19 03:33:00,59.2,42.5,29.18,NE,45,2.3,2.3,54,0.00,CLR,,0.00,WeatherDisplay:10.37,2013-06-19 08:33:00,
2013-06-19 03:35:00,59.0,42.8,29.18,NE,45,2.3,2.3,55,0.00,CLR,,0.00,WeatherDisplay:10.37,2013-06-19 08:35:00,
2013-06-19 03:36:00,59.0,42.8,29.18,ENE,68,2.3,2.3,55,0.00,CLR,,0.00,WeatherDisplay:10.37,2013-06-19 08:36:00,
2013-06-19 03:37:00,59.0,42.8,29.18,NNE,22,2.3,2.3,55,0.00,CLR,,0.00,WeatherDisplay:10.37,2013-06-19 08:37:00,
2013-06-19 03:38:00,59.0,42.4,29.18,NE,45,1.4,0.0,54,0.00,CLR,,0.00,WeatherDisplay:10.37,2013-06-19 08:38:00,
2013-06-19 03:39:00,59.0,42.8,29.18,NE,45,1.6,0.0,55,0.00,CLR,,0.00,WeatherDisplay:10.37,2013-06-19 08:39:00,
2013-06-19 03:42:00,58.8,42.7,29.18,NE,45,2.3,2.3,55,0.00,CLR,,0.00,WeatherDisplay:10.37,2013-06-19 08:42:00,
2013-06-19 03:43:00,58.8,42.7,29.18,NE,45,2.3,2.3,55,0.00,CLR,,0.00,WeatherDisplay:10.37,2013-06-19 08:43:00,
2013-06-19 03:44:00,58.8,42.7,29.18,NE,45,2.3,2.3,55,0.00,CLR,,0.00,WeatherDisplay:10.37,2013-06-19 08:44:00,
2013-06-19 03:45:00,58.8,42.7,29.18,NE,45,2.3,2.3,55,0.00,CLR,,0.00,WeatherDisplay:10.37,2013-06-19 08:45:00,
2013-06-19 03:49:00,58.6,43.0,29.20,NNE,22,1.1,1.1,56,0.00,CLR,,0.00,WeatherDisplay:10.37,2013-06-19 08:49:00,
2013-06-19 03:50:00,58.6,43.0,29.20,NNE,22,2.6,2.6,56,0.00,CLR,,0.00,WeatherDisplay:10.37,2013-06-19 08:50:00,
2013-06-19 03:51:00,58.6,43.0,29.20,NE,45,2.3,2.3,56,0.00,CLR,,0.00,WeatherDisplay:10.37,2013-06-19 08:51:00,
2013-06-19 03:53:00,58.6,43.0,29.20,ENE,68,2.4,2.4,56,0.00,CLR,,0.00,WeatherDisplay:10.37,2013-06-19 08:53:00,
2013-06-19 03:54:00,58.5,43.3,29.20,ENE,68,2.6,2.6,57,0.00,CLR,,0.00,WeatherDisplay:10.37,2013-06-19 08:54:00,
2013-06-19 03:56:00,58.5,42.8,29.20,NNE,22,3.5,3.5,56,0.00,CLR,,0.00,WeatherDisplay:10.37,2013-06-19 08:56:00,
2013-06-19 03:58:00,58.5,42.8,29.20,NNW,338,1.1,1.1,56,0.00,CLR,,0.00,WeatherDisplay:10.37,2013-06-19 08:58:00,
2013-06-19 03:59:00,58.5,42.8,29.20,NNW,338,1.1,1.1,56,0.00,CLR,,0.00,WeatherDisplay:10.37,2013-06-19 08:59:00,
2013-06-19 04:01:00,58.3,42.6,29.20,NNE,22,3.5,3.5,56,0.00,CLR,,0.00,WeatherDisplay:10.37,2013-06-19 09:01:00,
2013-06-19 04:03:00,58.3,42.6,29.18,NE,45,2.4,2.4,56,0.00,CLR,,0.00,WeatherDisplay:10.37,2013-06-19 09:03:00,
2013-06-19 04:04:00,58.3,42.6,29.18,NE,38,2.0,0.0,56,0.00,CLR,,0.00,WeatherDisplay:10.37,2013-06-19 09:04:00,
2013-06-19 04:05:00,58.3,42.6,29.18,ENE,68,2.4,2.4,56,0.00,CLR,,0.00,WeatherDisplay:10.37,2013-06-19 09:05:00,
2013-06-19 04:07:00,58.1,42.5,29.18,ENE,68,2.6,2.6,56,0.00,CLR,,0.00,WeatherDisplay:10.37,2013-06-19 09:07:00,
2013-06-19 04:09:00,58.1,42.0,29.18,ENE,60,2.0,0.0,55,0.00,CLR,,0.00,WeatherDisplay:10.37,2013-06-19 09:09:00,
2013-06-19 04:10:00,58.1,42.0,29.18,ENE,68,2.9,2.9,55,0.00,CLR,,0.00,WeatherDisplay:10.37,2013-06-19 09:10:00,
2013-06-19 04:12:00,58.1,42.0,29.18,ENE,68,3.1,3.1,55,0.00,CLR,,0.00,WeatherDisplay:10.37,2013-06-19 09:12:00,
2013-06-19 04:14:00,58.1,42.0,29.18,ENE,57,2.0,0.0,55,0.00,CLR,,0.00,WeatherDisplay:10.37,2013-06-19 09:14:00,
2013-06-19 04:16:00,58.1,41.5,29.18,ENE,68,3.5,3.5,54,0.00,CLR,,0.00,WeatherDisplay:10.37,2013-06-19 09:16:00,
2013-06-19 04:18:00,58.1,41.5,29.20,ENE,68,3.5,3.5,54,0.00,CLR,,0.00,WeatherDisplay:10.37,2013-06-19 09:18:00,
2013-06-19 04:20:00,57.9,41.4,29.20,ENE,68,2.6,2.6,54,0.00,CLR,,0.00,WeatherDisplay:10.37,2013-06-19 09:20:00,
2013-06-19 04:21:00,57.9,41.4,29.20,NE,45,2.9,2.9,54,0.00,CLR,,0.00,WeatherDisplay:10.37,2013-06-19 09:21:00,
2013-06-19 04:22:00,57.9,41.4,29.20,ENE,68,2.6,2.6,54,0.00,CLR,,0.00,WeatherDisplay:10.37,2013-06-19 09:22:00,
2013-06-19 04:23:00,57.9,41.4,29.20,ENE,68,4.6,4.6,54,0.00,CLR,,0.00,WeatherDisplay:10.37,2013-06-19 09:23:00,
2013-06-19 04:25:00,57.9,41.4,29.20,East,90,2.3,2.4,54,0.00,CLR,,0.00,WeatherDisplay:10.37,2013-06-19 09:25:00,
2013-06-19 04:26:00,57.9,41.4,29.20,ENE,68,2.3,2.3,54,0.00,CLR,,0.00,WeatherDisplay:10.37,2013-06-19 09:26:00,
2013-06-19 04:28:00,57.7,41.2,29.20,ENE,68,2.9,2.9,54,0.00,CLR,,0.00,WeatherDisplay:10.37,2013-06-19 09:28:00,
2013-06-19 04:29:00,57.7,41.2,29.20,ENE,68,2.3,2.3,54,0.00,CLR,,0.00,WeatherDisplay:10.37,2013-06-19 09:29:00,
2013-06-19 04:31:00,57.7,41.2,29.20,ENE,68,2.3,2.3,54,0.00,CLR,,0.00,WeatherDisplay:10.37,2013-06-19 09:31:00,
2013-06-19 04:34:00,57.6,41.0,29.20,ENE,68,3.5,3.5,54,0.00,CLR,,0.00,WeatherDisplay:10.37,2013-06-19 09:34:00,
2013-06-19 04:36:00,57.6,40.5,29.20,ENE,68,2.6,2.6,53,0.00,CLR,,0.00,WeatherDisplay:10.37,2013-06-19 09:36:00,
2013-06-19 04:37:00,57.6,40.5,29.20,ENE,68,2.3,2.3,53,0.00,CLR,,0.00,WeatherDisplay:10.37,2013-06-19 09:37:00,
2013-06-19 04:41:00,57.6,40.5,29.20,NE,45,2.6,2.6,53,0.00,CLR,,0.00,WeatherDisplay:10.37,2013-06-19 09:41:00,
2013-06-19 04:42:00,57.6,40.5,29.20,ENE,68,4.6,4.6,53,0.00,CLR,,0.00,WeatherDisplay:10.37,2013-06-19 09:42:00,
2013-06-19 04:43:00,57.6,40.1,29.20,ENE,68,2.4,2.4,52,0.00,CLR,,0.00,WeatherDisplay:10.37,2013-06-19 09:43:00,
2013-06-19 04:44:00,57.6,40.1,29.20,ENE,68,3.5,3.5,52,0.00,CLR,,0.00,WeatherDisplay:10.37,2013-06-19 09:44:00,
2013-06-19 04:48:00,57.4,39.9,29.20,ENE,68,3.5,3.5,52,0.00,CLR,,0.00,WeatherDisplay:10.37,2013-06-19 09:48:00,
2013-06-19 04:49:00,57.4,40.4,29.20,ENE,68,2.3,2.3,53,0.00,CLR,,0.00,WeatherDisplay:10.37,2013-06-19 09:49:00,
2013-06-19 04:50:00,57.4,40.4,29.20,NE,45,2.4,2.4,53,0.00,CLR,,0.00,WeatherDisplay:10.37,2013-06-19 09:50:00,
2013-06-19 04:53:00,57.4,40.4,29.20,ENE,68,2.3,2.3,53,0.00,CLR,,0.00,WeatherDisplay:10.37,2013-06-19 09:53:00,
2013-06-19 04:54:00,57.4,40.4,29.20,ENE,68,3.5,3.5,53,0.00,CLR,,0.00,WeatherDisplay:10.37,2013-06-19 09:54:00,
2013-06-19 04:57:00,57.2,39.7,29.20,ENE,68,3.5,3.5,52,0.00,CLR,,0.00,WeatherDisplay:10.37,2013-06-19 09:57:00,
2013-06-19 04:59:00,57.2,40.2,29.20,ENE,68,2.3,2.4,53,0.00,CLR,,0.00,WeatherDisplay:10.37,2013-06-19 09:59:00,
2013-06-19 05:00:00,57.2,40.2,29.20,NNE,22,3.5,3.5,53,0.00,CLR,,0.00,WeatherDisplay:10.37,2013-06-19 10:00:00,
2013-06-19 05:03:00,57.0,40.0,29.18,NNE,22,7.4,7.4,53,0.00,CLR,,0.00,WeatherDisplay:10.37,2013-06-19 10:03:00,
2013-06-19 05:04:00,57.0,40.0,29.18,ENE,68,6.9,6.9,53,0.00,CLR,,0.00,WeatherDisplay:10.37,2013-06-19 10:04:00,
2013-06-19 05:06:00,57.0,40.0,29.18,NE,45,4.0,4.0,53,0.00,CLR,,0.00,WeatherDisplay:10.37,2013-06-19 10:06:00,
2013-06-19 05:08:00,57.0,40.0,29.18,NNE,22,4.6,4.6,53,0.00,CLR,,0.00,WeatherDisplay:10.37,2013-06-19 10:08:00,
2013-06-19 05:09:00,57.0,40.0,29.18,NNE,22,4.6,4.6,53,0.00,CLR,,0.00,WeatherDisplay:10.37,2013-06-19 10:09:00,
2013-06-19 05:11:00,57.0,40.0,29.18,NE,45,3.5,3.5,53,0.00,CLR,,0.00,WeatherDisplay:10.37,2013-06-19 10:11:00,
2013-06-19 05:13:00,57.0,39.6,29.18,ENE,68,4.6,4.6,52,0.00,CLR,,0.00,WeatherDisplay:10.37,2013-06-19 10:13:00,
2013-06-19 05:15:00,57.0,39.6,29.18,ENE,68,3.5,3.5,52,0.00,CLR,,0.00,WeatherDisplay:10.37,2013-06-19 10:15:00,
2013-06-19 05:16:00,57.0,40.0,29.18,North,0,4.6,4.6,53,0.00,CLR,,0.00,WeatherDisplay:10.37,2013-06-19 10:16:00,
2013-06-19 05:17:00,56.8,39.4,29.18,NE,45,4.6,4.6,52,0.00,CLR,,0.00,WeatherDisplay:10.37,2013-06-19 10:17:00,
2013-06-19 05:18:00,56.8,39.4,29.20,ENE,68,4.6,4.6,52,0.00,CLR,,0.00,WeatherDisplay:10.37,2013-06-19 10:18:00,
2013-06-19 05:20:00,56.8,39.4,29.20,ENE,68,5.8,5.8,52,0.00,CLR,,0.00,WeatherDisplay:10.37,2013-06-19 10:20:00,
2013-06-19 05:23:00,56.8,39.4,29.20,ENE,68,4.7,4.7,52,0.00,CLR,,0.00,WeatherDisplay:10.37,2013-06-19 10:23:00,
2013-06-19 05:24:00,56.8,39.4,29.20,ENE,68,4.6,4.6,52,0.00,CLR,,0.00,WeatherDisplay:10.37,2013-06-19 10:24:00,
2013-06-19 05:25:00,56.8,39.4,29.20,NNE,22,3.5,3.5,52,0.00,CLR,,0.00,WeatherDisplay:10.37,2013-06-19 10:25:00,
2013-06-19 05:27:00,56.8,39.4,29.20,ENE,68,4.9,4.9,52,0.00,CLR,,0.00,WeatherDisplay:10.37,2013-06-19 10:27:00,
2013-06-19 05:28:00,56.8,39.4,29.20,NNE,22,4.6,4.6,52,0.00,CLR,,0.00,WeatherDisplay:10.37,2013-06-19 10:28:00,
2013-06-19 05:29:00,56.8,39.4,29.20,ENE,68,3.5,3.5,52,0.00,CLR,,0.00,WeatherDisplay:10.37,2013-06-19 10:29:00,
2013-06-19 05:31:00,56.8,39.4,29.20,NE,45,4.6,4.6,52,0.00,CLR,,0.00,WeatherDisplay:10.37,2013-06-19 10:31:00,
2013-06-19 05:34:00,56.8,39.4,29.20,ENE,68,5.6,5.6,52,0.00,CLR,,0.00,WeatherDisplay:10.37,2013-06-19 10:34:00,
2013-06-19 05:35:00,56.7,39.2,29.20,NNE,22,5.8,5.8,52,0.00,CLR,,0.00,WeatherDisplay:10.37,2013-06-19 10:35:00,
2013-06-19 05:36:00,56.7,39.2,29.20,ENE,68,4.6,4.6,52,0.00,CLR,,0.00,WeatherDisplay:10.37,2013-06-19 10:36:00,
2013-06-19 05:38:00,56.7,39.2,29.20,East,90,4.6,4.6,52,0.00,CLR,,0.00,WeatherDisplay:10.37,2013-06-19 10:38:00,
2013-06-19 05:41:00,56.7,39.2,29.20,NE,45,3.5,3.5,52,0.00,CLR,,0.00,WeatherDisplay:10.37,2013-06-19 10:41:00,
2013-06-19 05:42:00,56.7,39.2,29.20,ENE,68,3.5,3.5,52,0.00,CLR,,0.00,WeatherDisplay:10.37,2013-06-19 10:42:00,
2013-06-19 05:43:00,56.7,39.2,29.20,NNE,22,3.5,3.5,52,0.00,CLR,,0.00,WeatherDisplay:10.37,2013-06-19 10:43:00,
2013-06-19 05:44:00,56.7,39.2,29.20,NE,45,3.5,3.5,52,0.00,CLR,,0.00,WeatherDisplay:10.37,2013-06-19 10:44:00,
2013-06-19 05:47:00,56.7,39.2,29.20,NNE,22,3.5,3.5,52,0.00,CLR,,0.00,WeatherDisplay:10.37,2013-06-19 10:47:00,
2013-06-19 05:48:00,56.8,39.4,29.20,NNE,22,4.6,4.6,52,0.00,CLR,,0.00,WeatherDisplay:10.37,2013-06-19 10:48:00,
2013-06-19 05:49:00,56.7,39.2,29.20,NNE,22,4.6,4.6,52,0.00,CLR,,0.00,WeatherDisplay:10.37,2013-06-19 10:49:00,
2013-06-19 05:50:00,56.7,39.2,29.20,NE,45,4.6,4.6,52,0.00,CLR,,0.00,WeatherDisplay:10.37,2013-06-19 10:50:00,
2013-06-19 05:52:00,56.7,39.2,29.20,ENE,68,3.5,3.5,52,0.00,CLR,,0.00,WeatherDisplay:10.37,2013-06-19 10:52:00,
2013-06-19 05:54:00,56.7,39.2,29.20,NE,45,2.9,2.9,52,0.00,CLR,,0.00,WeatherDisplay:10.37,2013-06-19 10:54:00,
2013-06-19 05:55:00,56.7,39.2,29.20,ENE,68,3.5,3.5,52,0.00,CLR,,0.00,WeatherDisplay:10.37,2013-06-19 10:55:00,
2013-06-19 05:59:00,56.7,39.2,29.20,NE,54,2.0,0.0,52,0.00,CLR,,0.00,WeatherDisplay:10.37,2013-06-19 10:59:00,
2013-06-19 06:00:00,56.7,39.2,29.20,NE,45,2.4,2.6,52,0.00,CLR,,0.00,WeatherDisplay:10.37,2013-06-19 11:00:00,
2013-06-19 06:01:00,56.7,39.2,29.20,NE,45,3.5,3.5,52,0.00,CLR,,0.00,WeatherDisplay:10.37,2013-06-19 11:01:00,
2013-06-19 06:05:00,56.8,39.4,29.20,ENE,68,3.5,3.5,52,0.00,CLR,,0.00,WeatherDisplay:10.37,2013-06-19 11:05:00,
2013-06-19 06:06:00,56.8,39.4,29.20,NNE,22,3.5,3.5,52,0.00,CLR,,0.00,WeatherDisplay:10.37,2013-06-19 11:06:00,
2013-06-19 06:07:00,56.8,39.4,29.20,ENE,68,4.6,4.6,52,0.00,CLR,,0.00,WeatherDisplay:10.37,2013-06-19 11:07:00,
2013-06-19 06:08:00,56.8,39.4,29.20,NNE,22,5.8,5.8,52,0.00,CLR,,0.00,WeatherDisplay:10.37,2013-06-19 11:08:00,
2013-06-19 06:10:00,56.8,39.4,29.20,NE,45,3.6,3.6,52,0.00,CLR,,0.00,WeatherDisplay:10.37,2013-06-19 11:10:00,
2013-06-19 06:12:00,56.8,39.4,29.20,ENE,68,3.5,3.5,52,0.00,CLR,,0.00,WeatherDisplay:10.37,2013-06-19 11:12:00,
2013-06-19 06:13:00,56.8,39.4,29.20,ENE,68,3.5,3.5,52,0.00,CLR,,0.00,WeatherDisplay:10.37,2013-06-19 11:13:00,
2013-06-19 06:14:00,56.9,39.4,29.20,ENE,62,2.0,0.0,52,0.00,CLR,,0.00,WeatherDisplay:10.37,2013-06-19 11:14:00,
2013-06-19 06:15:00,57.0,39.6,29.20,ENE,68,3.6,3.6,52,0.00,CLR,,0.00,WeatherDisplay:10.37,2013-06-19 11:15:00,
2013-06-19 06:16:00,57.0,39.6,29.20,East,90,3.5,3.5,52,0.00,CLR,,0.00,WeatherDisplay:10.37,2013-06-19 11:16:00,
2013-06-19 06:18:00,57.0,39.6,29.20,ENE,68,3.5,3.5,52,0.00,CLR,,0.00,WeatherDisplay:10.37,2013-06-19 11:18:00,
2013-06-19 06:19:00,57.2,39.7,29.20,ENE,68,3.5,3.5,52,0.00,CLR,,0.00,WeatherDisplay:10.37,2013-06-19 11:19:00,
2013-06-19 06:21:00,57.2,39.7,29.20,East,90,4.6,4.6,52,0.00,CLR,,0.00,WeatherDisplay:10.37,2013-06-19 11:21:00,
2013-06-19 06:22:00,57.4,39.9,29.20,ENE,68,3.5,3.5,52,0.00,CLR,,0.00,WeatherDisplay:10.37,2013-06-19 11:22:00,
2013-06-19 06:23:00,57.4,39.9,29.20,ENE,68,3.5,3.5,52,0.00,CLR,,0.00,WeatherDisplay:10.37,2013-06-19 11:23:00,
2013-06-19 06:24:00,57.7,40.2,29.20,East,90,2.4,2.9,52,0.00,CLR,,0.00,WeatherDisplay:10.37,2013-06-19 11:24:00,
2013-06-19 06:25:00,57.7,40.2,29.20,ENE,68,3.5,3.5,52,0.00,CLR,,0.00,WeatherDisplay:10.37,2013-06-19 11:25:00,
2013-06-19 06:26:00,57.9,40.4,29.20,ENE,68,3.8,3.8,52,0.00,CLR,,0.00,WeatherDisplay:10.37,2013-06-19 11:26:00,
2013-06-19 06:28:00,58.6,41.1,29.20,ENE,68,4.6,4.6,52,0.00,CLR,,0.00,WeatherDisplay:10.37,2013-06-19 11:28:00,
2013-06-19 06:30:00,59.2,41.1,29.20,ENE,68,4.6,4.6,51,0.00,CLR,,0.00,WeatherDisplay:10.37,2013-06-19 11:30:00,
2013-06-19 06:33:00,60.1,41.4,29.20,ENE,68,3.5,3.5,50,0.00,CLR,,0.00,WeatherDisplay:10.37,2013-06-19 11:33:00,
2013-06-19 06:34:00,60.1,41.4,29.20,East,90,3.5,3.5,50,0.00,CLR,,0.00,WeatherDisplay:10.37,2013-06-19 11:34:00,
2013-06-19 06:35:00,60.1,41.4,29.20,ENE,68,2.3,2.9,50,0.00,CLR,,0.00,WeatherDisplay:10.37,2013-06-19 11:35:00,
2013-06-19 06:39:00,61.3,40.9,29.20,SE,135,3.5,3.5,47,0.00,CLR,,0.00,WeatherDisplay:10.37,2013-06-19 11:39:00,
2013-06-19 06:41:00,61.7,40.7,29.20,ENE,68,4.6,4.6,46,0.00,CLR,,0.00,WeatherDisplay:10.37,2013-06-19 11:41:00,
2013-06-19 06:44:00,62.2,40.0,29.20,ENE,68,6.9,6.9,44,0.00,CLR,,0.00,WeatherDisplay:10.37,2013-06-19 11:44:00,
2013-06-19 06:46:00,62.4,40.2,29.20,ENE,68,5.8,5.8,44,0.00,CLR,,0.00,WeatherDisplay:10.37,2013-06-19 11:46:00,
2013-06-19 06:47:00,62.6,39.8,29.20,NNE,22,5.9,5.9,43,0.00,CLR,,0.00,WeatherDisplay:10.37,2013-06-19 11:47:00,
2013-06-19 06:49:00,63.0,39.5,29.20,ENE,68,4.6,4.6,42,0.00,CLR,,0.00,WeatherDisplay:10.37,2013-06-19 11:49:00,
2013-06-19 06:52:00,63.7,40.8,29.20,NNE,22,3.5,3.5,43,0.00,CLR,,0.00,WeatherDisplay:10.37,2013-06-19 11:52:00,
2013-06-19 06:57:00,64.4,39.5,29.20,ENE,68,5.8,5.8,40,0.00,CLR,,0.00,WeatherDisplay:10.37,2013-06-19 11:57:00,
2013-06-19 06:58:00,64.6,39.0,29.20,NE,45,5.8,5.8,39,0.00,CLR,,0.00,WeatherDisplay:10.37,2013-06-19 11:58:00,
2013-06-19 06:59:00,64.9,40.7,29.20,SE,135,4.6,4.6,41,0.00,CLR,,0.00,WeatherDisplay:10.37,2013-06-19 11:59:00,
2013-06-19 07:00:00,64.9,39.4,29.20,ENE,68,4.6,4.6,39,0.00,CLR,,0.00,WeatherDisplay:10.37,2013-06-19 12:00:00,
2013-06-19 07:02:00,65.3,39.0,29.20,NE,45,3.8,3.8,38,0.00,CLR,,0.00,WeatherDisplay:10.37,2013-06-19 12:02:00,
2013-06-19 07:04:00,65.6,38.6,29.20,ENE,67,3.0,0.0,37,0.00,CLR,,0.00,WeatherDisplay:10.37,2013-06-19 12:04:00,
2013-06-19 07:06:00,65.8,38.8,29.20,NE,45,6.9,6.9,37,0.00,CLR,,0.00,WeatherDisplay:10.37,2013-06-19 12:06:00,
2013-06-19 07:07:00,66.2,39.1,29.20,ENE,68,3.5,3.5,37,0.00,CLR,,0.00,WeatherDisplay:10.37,2013-06-19 12:07:00,
2013-06-19 07:08:00,66.0,37.6,29.20,NE,45,4.6,4.6,35,0.00,CLR,,0.00,WeatherDisplay:10.37,2013-06-19 12:08:00,
2013-06-19 07:09:00,66.0,37.6,29.20,ENE,58,5.0,0.0,35,0.00,CLR,,0.00,WeatherDisplay:10.37,2013-06-19 12:09:00,
2013-06-19 07:11:00,66.6,38.8,29.20,ENE,68,3.5,3.5,36,0.00,CLR,,0.00,WeatherDisplay:10.37,2013-06-19 12:11:00,
2013-06-19 07:12:00,66.4,37.9,29.20,ENE,68,8.1,8.1,35,0.00,CLR,,0.00,WeatherDisplay:10.37,2013-06-19 12:12:00,
2013-06-19 07:13:00,66.4,37.9,29.20,ESE,112,8.1,8.1,35,0.00,CLR,,0.00,WeatherDisplay:10.37,2013-06-19 12:13:00,
2013-06-19 07:15:00,66.9,39.1,29.20,East,90,3.5,3.5,36,0.00,CLR,,0.00,WeatherDisplay:10.37,2013-06-19 12:15:00,
2013-06-19 07:16:00,67.3,39.4,29.20,NE,45,3.5,3.5,36,0.00,CLR,,0.00,WeatherDisplay:10.37,2013-06-19 12:16:00,
2013-06-19 07:18:00,67.3,38.7,29.20,SE,135,5.8,5.8,35,0.00,CLR,,0.00,WeatherDisplay:10.37,2013-06-19 12:18:00,
2013-06-19 07:19:00,67.8,39.1,29.20,ENE,73,2.0,0.0,35,0.00,CLR,,0.00,WeatherDisplay:10.37,2013-06-19 12:19:00,
2013-06-19 07:20:00,67.8,39.2,29.20,NE,45,6.9,6.9,35,0.00,CLR,,0.00,WeatherDisplay:10.37,2013-06-19 12:20:00,
2013-06-19 07:23:00,68.0,38.6,29.20,ENE,68,4.6,4.6,34,0.00,CLR,,0.00,WeatherDisplay:10.37,2013-06-19 12:23:00,
2013-06-19 07:24:00,68.4,38.9,29.20,ENE,68,5.6,5.6,34,0.00,CLR,,0.00,WeatherDisplay:10.37,2013-06-19 12:24:00,
2013-06-19 07:25:00,68.7,39.2,29.20,East,90,5.8,5.8,34,0.00,CLR,,0.00,WeatherDisplay:10.37,2013-06-19 12:25:00,
2013-06-19 07:28:00,68.7,39.2,29.20,NE,45,4.6,4.6,34,0.00,CLR,,0.00,WeatherDisplay:10.37,2013-06-19 12:28:00,
2013-06-19 07:29:00,68.7,38.4,29.20,ENE,68,4.6,4.6,33,0.00,CLR,,0.00,WeatherDisplay:10.37,2013-06-19 12:29:00,
2013-06-19 07:30:00,68.7,38.4,29.20,East,90,3.8,3.8,33,0.00,CLR,,0.00,WeatherDisplay:10.37,2013-06-19 12:30:00,
2013-06-19 07:32:00,68.9,38.6,29.20,East,90,4.6,4.6,33,0.00,CLR,,0.00,WeatherDisplay:10.37,2013-06-19 12:32:00,
2013-06-19 07:34:00,69.5,39.1,29.20,ENE,65,5.0,0.0,33,0.00,CLR,,0.00,WeatherDisplay:10.37,2013-06-19 12:34:00,
2013-06-19 07:35:00,69.4,39.1,29.20,ENE,68,5.8,5.8,33,0.00,CLR,,0.00,WeatherDisplay:10.37,2013-06-19 12:35:00,
2013-06-19 07:38:00,69.8,38.6,29.20,ENE,68,5.8,5.8,32,0.00,CLR,,0.00,WeatherDisplay:10.37,2013-06-19 12:38:00,
2013-06-19 07:39:00,69.8,38.6,29.20,ENE,75,3.0,0.0,32,0.00,CLR,,0.00,WeatherDisplay:10.37,2013-06-19 12:39:00,
2013-06-19 07:40:00,69.8,38.6,29.20,ENE,68,6.9,6.9,32,0.00,CLR,,0.00,WeatherDisplay:10.37,2013-06-19 12:40:00,
2013-06-19 07:44:00,71.8,41.1,29.20,NE,45,2.3,2.6,33,0.00,CLR,,0.00,WeatherDisplay:10.37,2013-06-19 12:44:00,
2013-06-19 07:45:00,72.1,40.6,29.20,NNE,22,2.3,2.3,32,0.00,CLR,,0.00,WeatherDisplay:10.37,2013-06-19 12:45:00,
2013-06-19 07:46:00,71.6,39.3,29.20,ENE,68,5.8,5.8,31,0.00,CLR,,0.00,WeatherDisplay:10.37,2013-06-19 12:46:00,
2013-06-19 07:49:00,71.8,39.5,29.20,ESE,112,8.1,8.1,31,0.00,CLR,,0.00,WeatherDisplay:10.37,2013-06-19 12:49:00,
2013-06-19 07:50:00,71.8,39.5,29.20,ENE,68,4.6,4.6,31,0.00,CLR,,0.00,WeatherDisplay:10.37,2013-06-19 12:50:00,
2013-06-19 07:51:00,71.6,39.3,29.20,NE,45,3.5,3.5,31,0.00,CLR,,0.00,WeatherDisplay:10.37,2013-06-19 12:51:00,
2013-06-19 07:54:00,71.4,39.2,29.20,NE,45,6.2,6.2,31,0.00,CLR,,0.00,WeatherDisplay:10.37,2013-06-19 12:54:00,
2013-06-19 07:56:00,71.6,40.2,29.20,East,90,5.8,5.8,32,0.00,CLR,,0.00,WeatherDisplay:10.37,2013-06-19 12:56:00,
2013-06-19 07:59:00,72.0,40.5,29.20,ENE,71,3.0,0.0,32,0.00,CLR,,0.00,WeatherDisplay:10.37,2013-06-19 12:59:00,
2013-06-19 08:01:00,72.1,39.8,29.20,ENE,68,3.3,3.3,31,0.00,CLR,,0.00,WeatherDisplay:10.37,2013-06-19 13:01:00,
2013-06-19 08:02:00,72.3,40.8,29.20,NE,45,5.8,5.8,32,0.00,CLR,,0.00,WeatherDisplay:10.37,2013-06-19 13:02:00,
2013-06-19 08:04:00,72.3,40.8,29.20,NE,45,4.6,4.6,32,0.00,CLR,,0.00,WeatherDisplay:10.37,2013-06-19 13:04:00,
2013-06-19 08:06:00,71.1,38.9,29.20,East,90,5.8,5.8,31,0.00,CLR,,0.00,WeatherDisplay:10.37,2013-06-19 13:06:00,
2013-06-19 08:07:00,71.2,39.9,29.20,ESE,112,5.8,5.8,32,0.00,CLR,,0.00,WeatherDisplay:10.37,2013-06-19 13:07:00,
2013-06-19 08:08:00,71.1,39.7,29.20,NNW,338,3.5,3.5,32,0.00,CLR,,0.00,WeatherDisplay:10.37,2013-06-19 13:08:00,
2013-06-19 08:09:00,71.4,40.0,29.20,East,90,3.5,3.5,32,0.00,CLR,,0.00,WeatherDisplay:10.37,2013-06-19 13:09:00,
2013-06-19 08:11:00,71.8,40.3,29.20,SE,135,4.9,4.9,32,0.00,CLR,,0.00,WeatherDisplay:10.37,2013-06-19 13:11:00,
2013-06-19 08:12:00,72.0,40.5,29.20,ESE,112,4.6,4.6,32,0.00,CLR,,0.00,WeatherDisplay:10.37,2013-06-19 13:12:00,
2013-06-19 08:13:00,72.5,41.0,29.20,East,90,3.5,3.5,32,0.00,CLR,,0.00,WeatherDisplay:10.37,2013-06-19 13:13:00,
2013-06-19 08:14:00,72.5,41.0,29.20,East,98,1.0,0.0,32,0.00,CLR,,0.00,WeatherDisplay:10.37,2013-06-19 13:14:00,
2013-06-19 08:15:00,72.5,41.0,29.20,East,90,3.3,3.3,32,0.00,CLR,,0.00,WeatherDisplay:10.37,2013-06-19 13:15:00,
2013-06-19 08:18:00,72.9,40.4,29.20,ESE,112,4.0,4.0,31,0.00,CLR,,0.00,WeatherDisplay:10.37,2013-06-19 13:18:00,
2013-06-19 08:20:00,73.2,41.6,29.20,SE,135,5.4,5.4,32,0.00,CLR,,0.00,WeatherDisplay:10.37,2013-06-19 13:20:00,
2013-06-19 08:21:00,73.6,41.1,29.20,ESE,112,5.8,5.8,31,0.00,CLR,,0.00,WeatherDisplay:10.37,2013-06-19 13:21:00,
2013-06-19 08:25:00,74.1,41.5,29.20,ESE,112,4.6,4.6,31,0.00,CLR,,0.00,WeatherDisplay:10.37,2013-06-19 13:25:00,
2013-06-19 08:26:00,74.3,41.7,29.20,ESE,112,3.5,3.5,31,0.00,CLR,,0.00,WeatherDisplay:10.37,2013-06-19 13:26:00,
2013-06-19 08:27:00,74.3,41.7,29.20,SE,135,2.3,2.3,31,0.00,CLR,,0.00,WeatherDisplay:10.37,2013-06-19 13:27:00,
2013-06-19 08:28:00,74.1,40.7,29.20,ESE,112,4.9,4.9,30,0.00,CLR,,0.00,WeatherDisplay:10.37,2013-06-19 13:28:00,
2013-06-19 08:31:00,73.6,40.2,29.20,SE,135,5.8,5.8,30,0.00,CLR,,0.00,WeatherDisplay:10.37,2013-06-19 13:31:00,
2013-06-19 08:34:00,73.4,40.9,29.20,NNW,338,3.5,3.5,31,0.00,CLR,,0.00,WeatherDisplay:10.37,2013-06-19 13:34:00,
2013-06-19 08:36:00,73.8,41.2,29.20,NNW,338,2.3,2.3,31,0.00,CLR,,0.00,WeatherDisplay:10.37,2013-06-19 13:36:00,
2013-06-19 08:38:00,73.4,40.1,29.20,ENE,68,5.9,5.9,30,0.00,CLR,,0.00,WeatherDisplay:10.37,2013-06-19 13:38:00,
2013-06-19 08:39:00,73.0,39.8,29.20,NNE,22,5.8,5.8,30,0.00,CLR,,0.00,WeatherDisplay:10.37,2013-06-19 13:39:00,
2013-06-19 08:40:00,72.5,40.1,29.20,ENE,68,5.8,5.8,31,0.00,CLR,,0.00,WeatherDisplay:10.37,2013-06-19 13:40:00,
2013-06-19 08:41:00,72.5,40.1,29.20,NE,45,5.8,5.8,31,0.00,CLR,,0.00,WeatherDisplay:10.37,2013-06-19 13:41:00,
2013-06-19 08:43:00,72.9,40.4,29.20,NNE,22,4.6,4.6,31,0.00,CLR,,0.00,WeatherDisplay:10.37,2013-06-19 13:43:00,
2013-06-19 08:45:00,72.3,40.0,29.20,NE,45,8.1,8.1,31,0.00,CLR,,0.00,WeatherDisplay:10.37,2013-06-19 13:45:00,
2013-06-19 08:46:00,72.3,40.8,29.20,SE,135,5.8,5.8,32,0.00,CLR,,0.00,WeatherDisplay:10.37,2013-06-19 13:46:00,
2013-06-19 08:47:00,73.0,41.4,29.20,SSE,158,4.6,4.6,32,0.00,CLR,,0.00,WeatherDisplay:10.37,2013-06-19 13:47:00,
2013-06-19 08:48:00,73.2,41.6,29.20,SE,135,4.6,4.6,32,0.00,CLR,,0.00,WeatherDisplay:10.37,2013-06-19 13:48:00,
2013-06-19 08:50:00,73.6,41.9,29.20,NE,45,3.5,3.5,32,0.00,CLR,,0.00,WeatherDisplay:10.37,2013-06-19 13:50:00,
2013-06-19 08:53:00,73.4,41.7,29.20,SE,135,5.8,5.8,32,0.00,CLR,,0.00,WeatherDisplay:10.37,2013-06-19 13:53:00,
2013-06-19 08:54:00,73.6,41.9,29.20,East,90,5.8,5.8,32,0.00,CLR,,0.00,WeatherDisplay:10.37,2013-06-19 13:54:00,
2013-06-19 08:55:00,73.6,41.9,29.20,East,90,3.5,3.5,32,0.00,CLR,,0.00,WeatherDisplay:10.37,2013-06-19 13:55:00,
2013-06-19 08:58:00,73.6,41.9,29.20,ESE,112,1.4,1.4,32,0.00,CLR,,0.00,WeatherDisplay:10.37,2013-06-19 13:58:00,
2013-06-19 09:00:00,73.6,41.9,29.20,ENE,68,5.8,5.8,32,0.00,CLR,,0.00,WeatherDisplay:10.37,2013-06-19 14:00:00,
2013-06-19 09:02:00,73.6,41.9,29.20,NNE,22,3.5,3.5,32,0.00,CLR,,0.00,WeatherDisplay:10.37,2013-06-19 14:02:00,
2013-06-19 09:03:00,73.6,41.9,29.20,ENE,68,3.6,3.6,32,0.00,CLR,,0.00,WeatherDisplay:10.37,2013-06-19 14:03:00,
2013-06-19 09:04:00,73.6,41.9,29.20,East,90,4.5,4.5,32,0.00,CLR,,0.00,WeatherDisplay:10.37,2013-06-19 14:04:00,
2013-06-19 09:05:00,73.6,41.9,29.20,East,90,4.6,4.6,32,0.00,CLR,,0.00,WeatherDisplay:10.37,2013-06-19 14:05:00,
2013-06-19 09:08:00,74.5,42.7,29.20,SSE,158,4.0,4.0,32,0.00,CLR,,0.00,WeatherDisplay:10.37,2013-06-19 14:08:00,
2013-06-19 09:09:00,74.7,42.8,29.20,SSE,158,4.6,4.6,32,0.00,CLR,,0.00,WeatherDisplay:10.37,2013-06-19 14:09:00,
2013-06-19 09:10:00,74.8,42.2,29.20,ENE,68,2.3,2.4,31,0.00,CLR,,0.00,WeatherDisplay:10.37,2013-06-19 14:10:00,
2013-06-19 09:11:00,75.0,43.1,29.20,SE,135,3.5,3.5,32,0.00,CLR,,0.00,WeatherDisplay:10.37,2013-06-19 14:11:00,
2013-06-19 09:13:00,75.2,42.5,29.20,SSE,158,3.5,3.5,31,0.00,CLR,,0.00,WeatherDisplay:10.37,2013-06-19 14:13:00,
2013-06-19 09:14:00,75.4,43.5,29.20,ESE,112,3.5,3.5,32,0.00,CLR,,0.00,WeatherDisplay:10.37,2013-06-19 14:14:00,
2013-06-19 09:16:00,75.4,42.6,29.20,SW,225,2.3,2.3,31,0.00,CLR,,0.00,WeatherDisplay:10.37,2013-06-19 14:16:00,
2013-06-19 09:17:00,75.4,42.6,29.20,SSE,158,2.3,2.3,31,0.00,CLR,,0.00,WeatherDisplay:10.37,2013-06-19 14:17:00,
2013-06-19 09:19:00,75.2,42.5,29.20,NNE,22,4.3,4.3,31,0.00,CLR,,0.00,WeatherDisplay:10.37,2013-06-19 14:19:00,
2013-06-19 09:22:00,74.5,41.9,29.20,NNE,22,4.6,4.6,31,0.00,CLR,,0.00,WeatherDisplay:10.37,2013-06-19 14:22:00,
2013-06-19 09:23:00,74.5,41.9,29.20,NE,45,4.0,4.0,31,0.00,CLR,,0.00,WeatherDisplay:10.37,2013-06-19 14:23:00,
2013-06-19 09:24:00,74.1,41.5,29.20,NE,48,3.0,0.0,31,0.00,CLR,,0.00,WeatherDisplay:10.37,2013-06-19 14:24:00,
2013-06-19 09:25:00,74.1,41.5,29.20,ENE,68,3.8,3.8,31,0.00,CLR,,0.00,WeatherDisplay:10.37,2013-06-19 14:25:00,
2013-06-19 09:28:00,74.8,43.0,29.20,East,90,2.6,2.6,32,0.00,CLR,,0.00,WeatherDisplay:10.37,2013-06-19 14:28:00,
2013-06-19 09:29:00,74.7,42.0,29.20,NE,45,2.0,0.0,31,0.00,CLR,,0.00,WeatherDisplay:10.37,2013-06-19 14:29:00,
2013-06-19 09:33:00,74.8,43.0,29.20,SSE,158,2.3,2.3,32,0.00,CLR,,0.00,WeatherDisplay:10.37,2013-06-19 14:33:00,
2013-06-19 09:34:00,74.8,43.0,29.20,SE,135,2.6,2.6,32,0.00,CLR,,0.00,WeatherDisplay:10.37,2013-06-19 14:34:00,
2013-06-19 09:36:00,75.4,43.5,29.20,SE,135,3.5,3.5,32,0.00,CLR,,0.00,WeatherDisplay:10.37,2013-06-19 14:36:00,
2013-06-19 09:39:00,76.0,44.0,29.20,East,97,2.0,0.0,32,0.00,CLR,,0.00,WeatherDisplay:10.37,2013-06-19 14:39:00,
2013-06-19 09:40:00,76.1,44.1,29.20,South,180,2.4,2.4,32,0.00,CLR,,0.00,WeatherDisplay:10.37,2013-06-19 14:40:00,
2013-06-19 09:41:00,76.3,44.2,29.20,East,90,3.5,3.5,32,0.00,CLR,,0.00,WeatherDisplay:10.37,2013-06-19 14:41:00,
2013-06-19 09:45:00,76.6,43.7,29.20,SSE,158,2.3,2.3,31,0.00,CLR,,0.00,WeatherDisplay:10.37,2013-06-19 14:45:00,
2013-06-19 09:46:00,76.6,43.7,29.20,ESE,112,3.5,3.5,31,0.00,CLR,,0.00,WeatherDisplay:10.37,2013-06-19 14:46:00,
2013-06-19 09:47:00,76.6,43.7,29.20,ESE,112,3.5,3.5,31,0.00,CLR,,0.00,WeatherDisplay:10.37,2013-06-19 14:47:00,
2013-06-19 09:48:00,76.8,43.9,29.20,NNE,22,2.3,2.3,31,0.00,CLR,,0.00,WeatherDisplay:10.37,2013-06-19 14:48:00,
2013-06-19 09:51:00,76.3,43.4,29.20,SE,135,2.6,2.6,31,0.00,CLR,,0.00,WeatherDisplay:10.37,2013-06-19 14:51:00,
2013-06-19 09:53:00,76.5,43.6,29.20,NNE,22,2.3,2.3,31,0.00,CLR,,0.00,WeatherDisplay:10.37,2013-06-19 14:53:00,
2013-06-19 09:54:00,76.1,43.3,29.20,East,90,2.3,2.3,31,0.00,CLR,,0.00,WeatherDisplay:10.37,2013-06-19 14:54:00,
2013-06-19 09:56:00,75.7,42.9,29.20,East,90,4.6,4.6,31,0.00,CLR,,0.00,WeatherDisplay:10.37,2013-06-19 14:56:00,
2013-06-19 09:57:00,75.7,42.9,29.20,ENE,68,5.8,5.8,31,0.00,CLR,,0.00,WeatherDisplay:10.37,2013-06-19 14:57:00,
2013-06-19 09:58:00,75.7,42.9,29.20,NE,45,4.6,4.6,31,0.00,CLR,,0.00,WeatherDisplay:10.37,2013-06-19 14:58:00,
2013-06-19 10:00:00,75.9,43.1,29.20,West,270,3.5,3.5,31,0.00,CLR,,0.00,WeatherDisplay:10.37,2013-06-19 15:00:00,
2013-06-19 10:01:00,75.9,43.1,29.20,West,270,2.3,2.3,31,0.00,CLR,,0.00,WeatherDisplay:10.37,2013-06-19 15:01:00,
2013-06-19 10:02:00,76.6,44.6,29.20,SE,135,2.3,2.3,32,0.00,CLR,,0.00,WeatherDisplay:10.37,2013-06-19 15:02:00,
2013-06-19 10:04:00,76.3,43.4,29.20,NE,38,2.0,0.0,31,0.00,CLR,,0.00,WeatherDisplay:10.37,2013-06-19 15:04:00,
2013-06-19 10:06:00,76.8,44.7,29.20,ENE,68,4.3,4.3,32,0.00,CLR,,0.00,WeatherDisplay:10.37,2013-06-19 15:06:00,
2013-06-19 10:08:00,76.6,43.7,29.20,NNE,22,4.6,4.6,31,0.00,CLR,,0.00,WeatherDisplay:10.37,2013-06-19 15:08:00,
2013-06-19 10:09:00,76.6,43.7,29.20,North,0,5.8,5.8,31,0.00,CLR,,0.00,WeatherDisplay:10.37,2013-06-19 15:09:00,
2013-06-19 10:10:00,76.8,43.9,29.20,NNW,338,4.6,4.6,31,0.00,CLR,,0.00,WeatherDisplay:10.37,2013-06-19 15:10:00,
2013-06-19 10:11:00,76.8,43.9,29.20,NNE,22,2.3,2.3,31,0.00,CLR,,0.00,WeatherDisplay:10.37,2013-06-19 15:11:00,
2013-06-19 10:14:00,77.4,44.4,29.20,NNE,22,2.6,3.6,31,0.00,CLR,,0.00,WeatherDisplay:10.37,2013-06-19 15:14:00,
2013-06-19 10:15:00,77.4,44.4,29.20,North,0,5.8,5.8,31,0.00,CLR,,0.00,WeatherDisplay:10.37,2013-06-19 15:15:00,
2013-06-19 10:16:00,77.4,44.4,29.20,North,0,3.5,3.5,31,0.00,CLR,,0.00,WeatherDisplay:10.37,2013-06-19 15:16:00,
2013-06-19 10:19:00,77.4,44.4,29.20,NW,315,3.3,3.3,31,0.00,CLR,,0.00,WeatherDisplay:10.37,2013-06-19 15:19:00,
2013-06-19 10:20:00,77.4,44.4,29.20,NW,315,4.6,4.6,31,0.00,CLR,,0.00,WeatherDisplay:10.37,2013-06-19 15:20:00,
2013-06-19 10:23:00,77.7,44.7,29.20,NNW,338,3.5,3.5,31,0.00,CLR,,0.00,WeatherDisplay:10.37,2013-06-19 15:23:00,
2013-06-19 10:25:00,78.1,45.0,29.20,East,90,3.6,3.6,31,0.00,CLR,,0.00,WeatherDisplay:10.37,2013-06-19 15:25:00,
2013-06-19 10:26:00,78.1,45.0,29.20,ENE,68,3.5,3.5,31,0.00,CLR,,0.00,WeatherDisplay:10.37,2013-06-19 15:26:00,
2013-06-19 10:27:00,77.9,44.0,29.20,ENE,68,2.3,2.3,30,0.00,CLR,,0.00,WeatherDisplay:10.37,2013-06-19 15:27:00,
2013-06-19 10:29:00,77.5,43.6,29.20,SE,135,3.5,3.5,30,0.00,CLR,,0.00,WeatherDisplay:10.37,2013-06-19 15:29:00,
2013-06-19 10:32:00,77.9,44.8,29.20,SSE,158,3.5,3.5,31,0.00,CLR,,0.00,WeatherDisplay:10.37,2013-06-19 15:32:00,
2013-06-19 10:33:00,78.4,45.3,29.20,East,90,3.5,3.5,31,0.00,CLR,,0.00,WeatherDisplay:10.37,2013-06-19 15:33:00,
2013-06-19 10:34:00,78.5,45.3,29.20,ESE,108,2.0,0.0,31,0.00,CLR,,0.00,WeatherDisplay:10.37,2013-06-19 15:34:00,
2013-06-19 10:36:00,78.4,44.4,29.20,NE,45,4.6,4.6,30,0.00,CLR,,0.00,WeatherDisplay:10.37,2013-06-19 15:36:00,
2013-06-19 10:38:00,77.9,43.1,29.20,East,90,5.8,5.8,29,0.00,CLR,,0.00,WeatherDisplay:10.37,2013-06-19 15:38:00,
2013-06-19 10:39:00,78.1,44.1,29.20,ESE,112,4.6,4.6,30,0.00,CLR,,0.00,WeatherDisplay:10.37,2013-06-19 15:39:00,
2013-06-19 10:42:00,78.3,44.3,29.20,NE,45,5.8,5.8,30,0.00,CLR,,0.00,WeatherDisplay:10.37,2013-06-19 15:42:00,
2013-06-19 10:43:00,78.1,44.1,29.20,NW,315,4.6,4.6,30,0.00,CLR,,0.00,WeatherDisplay:10.37,2013-06-19 15:43:00,
2013-06-19 10:44:00,78.4,44.4,29.20,East,96,2.0,0.0,30,0.00,CLR,,0.00,WeatherDisplay:10.37,2013-06-19 15:44:00,
2013-06-19 10:47:00,79.0,44.9,29.20,SE,135,5.9,5.9,30,0.00,CLR,,0.00,WeatherDisplay:10.37,2013-06-19 15:47:00,
2013-06-19 10:49:00,79.5,45.4,29.20,ESE,112,5.8,5.8,30,0.00,CLR,,0.00,WeatherDisplay:10.37,2013-06-19 15:49:00,
2013-06-19 10:50:00,79.5,45.4,29.20,SSW,202,4.6,4.6,30,0.00,CLR,,0.00,WeatherDisplay:10.37,2013-06-19 15:50:00,
2013-06-19 10:53:00,79.3,41.5,29.20,NE,45,4.3,4.3,26,0.00,CLR,,0.00,WeatherDisplay:10.37,2013-06-19 15:53:00,
2013-06-19 10:56:00,79.0,42.1,29.20,NE,45,4.6,4.6,27,0.00,CLR,,0.00,WeatherDisplay:10.37,2013-06-19 15:56:00,
2013-06-19 10:57:00,79.0,40.1,29.20,ENE,68,3.8,3.8,25,0.00,CLR,,0.00,WeatherDisplay:10.37,2013-06-19 15:57:00,
2013-06-19 10:58:00,79.0,40.1,29.20,ESE,112,3.8,3.8,25,0.00,CLR,,0.00,WeatherDisplay:10.37,2013-06-19 15:58:00,
2013-06-19 10:59:00,79.2,42.3,29.20,ENE,68,3.5,3.5,27,0.00,CLR,,0.00,WeatherDisplay:10.37,2013-06-19 15:59:00,
2013-06-19 11:01:00,79.2,41.3,29.20,ENE,68,3.6,3.6,26,0.00,CLR,,0.00,WeatherDisplay:10.37,2013-06-19 16:01:00,
2013-06-19 11:02:00,79.0,41.2,29.20,East,90,4.6,4.6,26,0.00,CLR,,0.00,WeatherDisplay:10.37,2013-06-19 16:02:00,
2013-06-19 11:04:00,79.9,45.7,29.20,South,180,4.9,4.9,30,0.00,CLR,,0.00,WeatherDisplay:10.37,2013-06-19 16:04:00,
2013-06-19 11:05:00,79.9,45.7,29.20,SE,135,5.8,5.8,30,0.00,CLR,,0.00,WeatherDisplay:10.37,2013-06-19 16:05:00,
2013-06-19 11:06:00,80.1,45.8,29.20,ESE,112,5.8,5.8,30,0.00,CLR,,0.00,WeatherDisplay:10.37,2013-06-19 16:06:00,
2013-06-19 11:07:00,80.4,46.1,29.20,ENE,68,4.9,4.9,30,0.00,CLR,,0.00,WeatherDisplay:10.37,2013-06-19 16:07:00,
2013-06-19 11:09:00,79.7,39.7,29.20,NNE,22,4.9,4.9,24,0.00,CLR,,0.00,WeatherDisplay:10.37,2013-06-19 16:09:00,
2013-06-19 11:10:00,79.5,40.6,29.20,East,90,6.4,6.4,25,0.00,CLR,,0.00,WeatherDisplay:10.37,2013-06-19 16:10:00,
2013-06-19 11:11:00,79.5,40.6,29.20,ENE,68,6.9,6.9,25,0.00,CLR,,0.00,WeatherDisplay:10.37,2013-06-19 16:11:00,
2013-06-19 11:13:00,79.7,39.7,29.20,NNE,22,5.8,5.8,24,0.00,CLR,,0.00,WeatherDisplay:10.37,2013-06-19 16:13:00,
2013-06-19 11:16:00,80.1,41.1,29.20,ESE,112,3.8,3.8,25,0.00,CLR,,0.00,WeatherDisplay:10.37,2013-06-19 16:16:00,
2013-06-19 11:18:00,80.4,42.4,29.20,ESE,112,5.8,5.8,26,0.00,CLR,,0.00,WeatherDisplay:10.37,2013-06-19 16:18:00,
2013-06-19 11:19:00,80.6,41.5,29.20,East,82,2.0,0.0,25,0.00,CLR,,0.00,WeatherDisplay:10.37,2013-06-19 16:19:00,
2013-06-19 11:21:00,80.2,41.2,29.20,ENE,68,5.8,5.8,25,0.00,CLR,,0.00,WeatherDisplay:10.37,2013-06-19 16:21:00,
2013-06-19 11:22:00,80.2,40.2,29.20,ESE,112,4.6,4.6,24,0.00,CLR,,0.00,WeatherDisplay:10.37,2013-06-19 16:22:00,
2013-06-19 11:24:00,80.3,39.1,29.20,ESE,104,1.0,0.0,23,0.00,CLR,,0.00,WeatherDisplay:10.37,2013-06-19 16:24:00,
2013-06-19 11:25:00,80.4,40.3,29.20,East,90,4.6,4.6,24,0.00,CLR,,0.00,WeatherDisplay:10.37,2013-06-19 16:25:00,
2013-06-19 11:27:00,80.8,40.6,29.20,SE,135,7.1,7.1,24,0.00,CLR,,0.00,WeatherDisplay:10.37,2013-06-19 16:27:00,
2013-06-19 11:28:00,80.8,40.6,29.20,South,180,6.9,6.9,24,0.00,CLR,,0.00,WeatherDisplay:10.37,2013-06-19 16:28:00,
2013-06-19 11:29:00,81.3,42.1,29.20,SSE,156,3.0,0.0,25,0.00,CLR,,0.00,WeatherDisplay:10.37,2013-06-19 16:29:00,
2013-06-19 11:30:00,81.3,42.1,29.20,SSE,158,3.5,3.5,25,0.00,CLR,,0.00,WeatherDisplay:10.37,2013-06-19 16:30:00,
2013-06-19 11:31:00,81.5,43.3,29.20,South,180,4.6,4.6,26,0.00,CLR,,0.00,WeatherDisplay:10.37,2013-06-19 16:31:00,
2013-06-19 11:34:00,81.0,39.7,29.20,ESE,112,5.8,5.8,23,0.00,CLR,,0.00,WeatherDisplay:10.37,2013-06-19 16:34:00,
2013-06-19 11:36:00,81.1,40.9,29.20,NE,45,5.8,5.8,24,0.00,CLR,,0.00,WeatherDisplay:10.37,2013-06-19 16:36:00,
2013-06-19 11:37:00,81.1,40.9,29.20,SSE,158,5.8,5.8,24,0.00,CLR,,0.00,WeatherDisplay:10.37,2013-06-19 16:37:00,
2013-06-19 11:39:00,81.3,41.1,29.20,South,180,5.8,5.9,24,0.00,CLR,,0.00,WeatherDisplay:10.37,2013-06-19 16:39:00,
2013-06-19 11:40:00,81.3,42.1,29.20,ENE,68,5.8,5.8,25,0.00,CLR,,0.00,WeatherDisplay:10.37,2013-06-19 16:40:00,
2013-06-19 11:41:00,81.0,40.8,29.20,ENE,68,4.9,4.9,24,0.00,CLR,,0.00,WeatherDisplay:10.37,2013-06-19 16:41:00,
2013-06-19 11:43:00,81.1,40.9,29.20,SSE,158,4.6,4.6,24,0.00,CLR,,0.00,WeatherDisplay:10.37,2013-06-19 16:43:00,
2013-06-19 11:44:00,81.1,40.9,29.20,ESE,112,4.6,4.6,24,0.00,CLR,,0.00,WeatherDisplay:10.37,2013-06-19 16:44:00,
2013-06-19 11:46:00,81.5,40.1,29.20,ESE,112,5.8,5.8,23,0.00,CLR,,0.00,WeatherDisplay:10.37,2013-06-19 16:46:00,
2013-06-19 11:47:00,81.7,40.3,29.20,SSE,158,6.0,6.0,23,0.00,CLR,,0.00,WeatherDisplay:10.37,2013-06-19 16:47:00,
2013-06-19 11:50:00,82.2,39.6,29.20,SSE,158,8.1,8.1,22,0.00,CLR,,0.00,WeatherDisplay:10.37,2013-06-19 16:50:00,
2013-06-19 11:51:00,82.2,39.6,29.20,SE,135,6.9,6.9,22,0.00,CLR,,0.00,WeatherDisplay:10.37,2013-06-19 16:51:00,
2013-06-19 11:52:00,82.4,40.9,29.20,East,90,5.8,5.8,23,0.00,CLR,,0.00,WeatherDisplay:10.37,2013-06-19 16:52:00,
2013-06-19 11:54:00,81.5,37.8,29.20,NNE,22,3.5,3.5,21,0.00,CLR,,0.00,WeatherDisplay:10.37,2013-06-19 16:54:00,
2013-06-19 11:56:00,81.7,39.1,29.20,WNW,292,2.6,0.0,22,0.00,CLR,,0.00,WeatherDisplay:10.37,2013-06-19 16:56:00,
2013-06-19 11:59:00,81.9,40.4,29.20,East,90,3.5,3.5,23,0.00,CLR,,0.00,WeatherDisplay:10.37,2013-06-19 16:59:00,
2013-06-19 12:00:00,81.9,40.4,29.20,SSE,158,3.5,3.5,23,0.00,CLR,,0.00,WeatherDisplay:10.37,2013-06-19 17:00:00,
2013-06-19 12:01:00,81.9,39.3,29.20,NE,45,2.3,2.4,22,0.00,CLR,,0.00,WeatherDisplay:10.37,2013-06-19 17:01:00,
2013-06-19 12:02:00,81.3,36.4,29.20,East,90,3.5,3.5,20,0.00,CLR,,0.00,WeatherDisplay:10.37,2013-06-19 17:02:00,
2013-06-19 12:04:00,81.7,39.1,29.20,East,98,6.0,0.0,22,0.00,CLR,,0.00,WeatherDisplay:10.37,2013-06-19 17:04:00,
2013-06-19 12:06:00,81.3,36.4,29.20,ESE,112,4.3,4.3,20,0.00,CLR,,0.00,WeatherDisplay:10.37,2013-06-19 17:06:00,
2013-06-19 12:07:00,81.3,36.4,29.20,ESE,112,5.9,5.9,20,0.00,CLR,,0.00,WeatherDisplay:10.37,2013-06-19 17:07:00,
2013-06-19 12:08:00,81.3,37.6,29.20,South,180,5.8,5.8,21,0.00,CLR,,0.00,WeatherDisplay:10.37,2013-06-19 17:08:00,
2013-06-19 12:09:00,81.5,37.8,29.20,ESE,108,2.0,0.0,21,0.00,CLR,,0.00,WeatherDisplay:10.37,2013-06-19 17:09:00,
2013-06-19 12:10:00,81.7,37.9,29.20,SE,135,4.6,4.6,21,0.00,CLR,,0.00,WeatherDisplay:10.37,2013-06-19 17:10:00,
2013-06-19 12:12:00,82.0,38.2,29.20,ESE,112,3.5,3.5,21,0.00,CLR,,0.00,WeatherDisplay:10.37,2013-06-19 17:12:00,
2013-06-19 12:13:00,81.7,36.7,29.20,SE,135,3.5,3.5,20,0.00,CLR,,0.00,WeatherDisplay:10.37,2013-06-19 17:13:00,
2013-06-19 12:14:00,81.9,38.1,29.20,SSE,158,4.6,4.6,21,0.00,CLR,,0.00,WeatherDisplay:10.37,2013-06-19 17:14:00,
2013-06-19 12:15:00,81.9,38.1,29.20,SSW,202,3.5,3.5,21,0.00,CLR,,0.00,WeatherDisplay:10.37,2013-06-19 17:15:00,
2013-06-19 12:18:00,82.2,38.4,29.18,East,90,5.8,5.8,21,0.00,CLR,,0.00,WeatherDisplay:10.37,2013-06-19 17:18:00,
2013-06-19 12:20:00,82.4,38.5,29.18,SE,135,8.7,8.7,21,0.00,CLR,,0.00,WeatherDisplay:10.37,2013-06-19 17:20:00,
2013-06-19 12:21:00,82.4,38.5,29.18,ESE,112,9.2,9.2,21,0.00,CLR,,0.00,WeatherDisplay:10.37,2013-06-19 17:21:00,
2013-06-19 12:23:00,82.8,37.6,29.18,ENE,68,4.6,4.6,20,0.00,CLR,,0.00,WeatherDisplay:10.37,2013-06-19 17:23:00,
2013-06-19 12:24:00,82.6,36.1,29.18,ESE,112,4.6,4.6,19,0.00,CLR,,0.00,WeatherDisplay:10.37,2013-06-19 17:24:00,
2013-06-19 12:26:00,82.8,36.3,29.18,ESE,112,6.9,6.9,19,0.00,CLR,,0.00,WeatherDisplay:10.37,2013-06-19 17:26:00,
2013-06-19 12:27:00,82.9,37.7,29.18,ESE,112,4.7,4.7,20,0.00,CLR,,0.00,WeatherDisplay:10.37,2013-06-19 17:27:00,
2013-06-19 12:28:00,82.9,37.7,29.18,ESE,112,4.6,4.6,20,0.00,CLR,,0.00,WeatherDisplay:10.37,2013-06-19 17:28:00,
2013-06-19 12:29:00,82.8,36.3,29.18,SSE,158,4.6,4.6,19,0.00,CLR,,0.00,WeatherDisplay:10.37,2013-06-19 17:29:00,
2013-06-19 12:31:00,82.9,36.4,29.18,NE,45,4.6,4.6,19,0.00,CLR,,0.00,WeatherDisplay:10.37,2013-06-19 17:31:00,
2013-06-19 12:32:00,82.9,36.4,29.18,NE,45,3.6,3.6,19,0.00,CLR,,0.00,WeatherDisplay:10.37,2013-06-19 17:32:00,
2013-06-19 12:33:00,82.9,36.4,29.20,NE,45,3.5,3.5,19,0.00,CLR,,0.00,WeatherDisplay:10.37,2013-06-19 17:33:00,
2013-06-19 12:34:00,82.8,36.3,29.20,NE,45,4.6,4.6,19,0.00,CLR,,0.00,WeatherDisplay:10.37,2013-06-19 17:34:00,
2013-06-19 12:37:00,82.6,36.1,29.20,WNW,292,3.5,0.0,19,0.00,CLR,,0.00,WeatherDisplay:10.37,2013-06-19 17:37:00,
2013-06-19 12:39:00,82.6,36.1,29.20,WNW,292,4.6,4.6,19,0.00,CLR,,0.00,WeatherDisplay:10.37,2013-06-19 17:39:00,
2013-06-19 12:40:00,82.8,37.6,29.20,SE,135,2.6,2.6,20,0.00,CLR,,0.00,WeatherDisplay:10.37,2013-06-19 17:40:00,
2013-06-19 12:41:00,82.8,37.6,29.20,South,180,3.3,3.3,20,0.00,CLR,,0.00,WeatherDisplay:10.37,2013-06-19 17:41:00,
2013-06-19 12:42:00,82.6,37.4,29.20,SSW,202,3.5,3.5,20,0.00,CLR,,0.00,WeatherDisplay:10.37,2013-06-19 17:42:00,
2013-06-19 12:45:00,82.8,37.6,29.20,SSE,158,5.8,5.8,20,0.00,CLR,,0.00,WeatherDisplay:10.37,2013-06-19 17:45:00,
2013-06-19 12:47:00,82.9,37.7,29.20,SE,135,6.9,6.9,20,0.00,CLR,,0.00,WeatherDisplay:10.37,2013-06-19 17:47:00,
2013-06-19 12:48:00,82.9,36.4,29.18,SSE,158,5.8,5.8,19,0.00,CLR,,0.00,WeatherDisplay:10.37,2013-06-19 17:48:00,
2013-06-19 12:49:00,82.9,36.4,29.18,SSW,202,2.9,0.0,19,0.00,CLR,,0.00,WeatherDisplay:10.37,2013-06-19 17:49:00,
2013-06-19 12:50:00,83.1,37.9,29.18,SW,225,3.5,3.5,20,0.00,CLR,,0.00,WeatherDisplay:10.37,2013-06-19 17:50:00,
2013-06-19 12:53:00,82.8,37.6,29.18,NNE,22,8.1,8.1,20,0.00,CLR,,0.00,WeatherDisplay:10.37,2013-06-19 17:53:00,
2013-06-19 12:54:00,82.6,36.1,29.18,NNE,22,5.8,5.8,19,0.00,CLR,,0.00,WeatherDisplay:10.37,2013-06-19 17:54:00,
2013-06-19 12:57:00,82.8,36.3,29.18,ESE,112,5.8,5.8,19,0.00,CLR,,0.00,WeatherDisplay:10.37,2013-06-19 17:57:00,
2013-06-19 12:59:00,82.9,36.4,29.18,East,95,3.0,0.0,19,0.00,CLR,,0.00,WeatherDisplay:10.37,2013-06-19 17:59:00,
2013-06-19 13:00:00,82.9,36.4,29.18,ENE,68,4.6,4.6,19,0.00,CLR,,0.00,WeatherDisplay:10.37,2013-06-19 18:00:00,
2013-06-19 13:01:00,82.9,36.4,29.18,SSE,158,4.6,4.6,19,0.00,CLR,,0.00,WeatherDisplay:10.37,2013-06-19 18:01:00,
2013-06-19 13:02:00,82.8,36.3,29.18,SW,225,2.3,2.3,19,0.00,CLR,,0.00,WeatherDisplay:10.37,2013-06-19 18:02:00,
2013-06-19 13:05:00,82.9,37.7,29.20,ESE,112,3.5,3.5,20,0.00,CLR,,0.00,WeatherDisplay:10.37,2013-06-19 18:05:00,
2013-06-19 13:06:00,83.3,38.0,29.20,South,180,3.5,3.5,20,0.00,CLR,,0.00,WeatherDisplay:10.37,2013-06-19 18:06:00,
2013-06-19 13:07:00,83.5,38.2,29.20,South,180,2.3,2.3,20,0.00,CLR,,0.00,WeatherDisplay:10.37,2013-06-19 18:07:00,
2013-06-19 13:08:00,83.7,38.3,29.20,WNW,292,2.2,0.0,20,0.00,CLR,,0.00,WeatherDisplay:10.37,2013-06-19 18:08:00,
2013-06-19 13:11:00,83.3,36.7,29.20,East,90,3.5,3.5,19,0.00,CLR,,0.00,WeatherDisplay:10.37,2013-06-19 18:11:00,
2013-06-19 13:13:00,83.3,36.7,29.20,East,90,4.7,4.7,19,0.00,CLR,,0.00,WeatherDisplay:10.37,2013-06-19 18:13:00,
2013-06-19 13:15:00,83.5,36.9,29.20,North,0,4.6,4.6,19,0.00,CLR,,0.00,WeatherDisplay:10.37,2013-06-19 18:15:00,
2013-06-19 13:16:00,83.5,36.9,29.20,NNE,22,3.5,3.5,19,0.00,CLR,,0.00,WeatherDisplay:10.37,2013-06-19 18:16:00,
2013-06-19 13:17:00,83.3,36.7,29.20,ENE,68,2.6,2.6,19,0.00,CLR,,0.00,WeatherDisplay:10.37,2013-06-19 18:17:00,
2013-06-19 13:18:00,83.3,36.7,29.20,SSE,158,6.0,6.0,19,0.00,CLR,,0.00,WeatherDisplay:10.37,2013-06-19 18:18:00,
2013-06-19 13:19:00,83.5,38.2,29.20,ESE,106,6.0,0.0,20,0.00,CLR,,0.00,WeatherDisplay:10.37,2013-06-19 18:19:00,
2013-06-19 13:20:00,83.5,38.2,29.20,South,180,5.8,5.8,20,0.00,CLR,,0.00,WeatherDisplay:10.37,2013-06-19 18:20:00,
2013-06-19 13:23:00,84.0,38.6,29.20,WSW,248,3.5,3.5,20,0.00,CLR,,0.00,WeatherDisplay:10.37,2013-06-19 18:23:00,
2013-06-19 13:24:00,84.0,38.6,29.20,SSW,193,2.0,0.0,20,0.00,CLR,,0.00,WeatherDisplay:10.37,2013-06-19 18:24:00,
2013-06-19 13:25:00,84.0,38.6,29.20,NW,315,3.1,3.1,20,0.00,CLR,,0.00,WeatherDisplay:10.37,2013-06-19 18:25:00,
2013-06-19 13:27:00,84.0,38.6,29.20,SSE,158,2.6,2.6,20,0.00,CLR,,0.00,WeatherDisplay:10.37,2013-06-19 18:27:00,
2013-06-19 13:28:00,84.2,38.8,29.20,East,90,3.5,3.5,20,0.00,CLR,,0.00,WeatherDisplay:10.37,2013-06-19 18:28:00,
2013-06-19 13:29:00,84.2,37.5,29.20,SW,214,2.0,0.0,19,0.00,CLR,,0.00,WeatherDisplay:10.37,2013-06-19 18:29:00,
2013-06-19 13:30:00,84.0,37.3,29.20,ESE,112,6.0,6.0,19,0.00,CLR,,0.00,WeatherDisplay:10.37,2013-06-19 18:30:00,
2013-06-19 13:32:00,83.5,36.9,29.18,NNE,22,5.8,5.8,19,0.00,CLR,,0.00,WeatherDisplay:10.37,2013-06-19 18:32:00,
2013-06-19 13:33:00,83.5,36.9,29.18,NNW,338,3.5,3.5,19,0.00,CLR,,0.00,WeatherDisplay:10.37,2013-06-19 18:33:00,
2013-06-19 13:34:00,83.7,37.0,29.18,West,270,2.6,2.6,19,0.00,CLR,,0.00,WeatherDisplay:10.37,2013-06-19 18:34:00,
2013-06-19 13:35:00,83.7,37.0,29.18,NNW,338,4.6,4.6,19,0.00,CLR,,0.00,WeatherDisplay:10.37,2013-06-19 18:35:00,
2013-06-19 13:37:00,83.8,37.2,29.18,WNW,292,2.4,2.4,19,0.00,CLR,,0.00,WeatherDisplay:10.37,2013-06-19 18:37:00,
2013-06-19 13:38:00,84.0,37.3,29.18,SSE,158,2.6,2.6,19,0.00,CLR,,0.00,WeatherDisplay:10.37,2013-06-19 18:38:00,
2013-06-19 13:39:00,83.9,37.2,29.18,WNW,298,1.0,0.0,19,0.00,CLR,,0.00,WeatherDisplay:10.37,2013-06-19 18:39:00,
2013-06-19 13:40:00,83.8,37.2,29.18,North,0,3.5,3.5,19,0.00,CLR,,0.00,WeatherDisplay:10.37,2013-06-19 18:40:00,
2013-06-19 13:41:00,83.8,37.2,29.18,SSW,202,1.1,1.1,19,0.00,CLR,,0.00,WeatherDisplay:10.37,2013-06-19 18:41:00,
2013-06-19 13:44:00,83.8,37.2,29.18,NNE,22,4.6,4.6,19,0.00,CLR,,0.00,WeatherDisplay:10.37,2013-06-19 18:44:00,
2013-06-19 13:45:00,84.0,37.3,29.18,NNW,338,2.3,2.3,19,0.00,CLR,,0.00,WeatherDisplay:10.37,2013-06-19 18:45:00,
2013-06-19 13:46:00,84.0,37.3,29.18,West,270,2.3,2.3,19,0.00,CLR,,0.00,WeatherDisplay:10.37,2013-06-19 18:46:00,
2013-06-19 13:48:00,84.0,37.3,29.18,ENE,68,3.5,3.5,19,0.00,CLR,,0.00,WeatherDisplay:10.37,2013-06-19 18:48:00,
2013-06-19 13:49:00,83.8,37.2,29.18,South,180,4.6,4.6,19,0.00,CLR,,0.00,WeatherDisplay:10.37,2013-06-19 18:49:00,
2013-06-19 13:50:00,84.0,37.3,29.18,ESE,112,7.8,7.8,19,0.00,CLR,,0.00,WeatherDisplay:10.37,2013-06-19 18:50:00,
2013-06-19 13:52:00,84.0,37.3,29.18,SE,135,5.8,5.8,19,0.00,CLR,,0.00,WeatherDisplay:10.37,2013-06-19 18:52:00,
2013-06-19 13:53:00,84.0,37.3,29.18,SSE,158,4.6,4.6,19,0.00,CLR,,0.00,WeatherDisplay:10.37,2013-06-19 18:53:00,
2013-06-19 13:54:00,83.9,37.2,29.18,ESE,115,2.0,0.0,19,0.00,CLR,,0.00,WeatherDisplay:10.37,2013-06-19 18:54:00,
2013-06-19 13:55:00,83.8,37.2,29.18,ENE,68,4.6,4.6,19,0.00,CLR,,0.00,WeatherDisplay:10.37,2013-06-19 18:55:00,
2013-06-19 13:58:00,83.8,37.2,29.18,South,180,4.6,4.6,19,0.00,CLR,,0.00,WeatherDisplay:10.37,2013-06-19 18:58:00,
2013-06-19 13:59:00,84.0,37.3,29.18,SE,135,7.6,7.6,19,0.00,CLR,,0.00,WeatherDisplay:10.37,2013-06-19 18:59:00,
2013-06-19 14:00:00,84.2,36.1,29.18,ESE,112,8.1,8.1,18,0.00,CLR,,0.00,WeatherDisplay:10.37,2013-06-19 19:00:00,
2013-06-19 14:01:00,84.2,36.1,29.18,SSW,202,6.9,6.9,18,0.00,CLR,,0.00,WeatherDisplay:10.37,2013-06-19 19:01:00,
2013-06-19 14:04:00,84.2,37.5,29.18,ESE,112,6.2,6.4,19,0.00,CLR,,0.00,WeatherDisplay:10.37,2013-06-19 19:04:00,
2013-06-19 14:05:00,84.4,36.2,29.18,East,90,8.1,8.1,18,0.00,CLR,,0.00,WeatherDisplay:10.37,2013-06-19 19:05:00,
2013-06-19 14:06:00,84.4,37.6,29.18,NE,45,5.8,5.8,19,0.00,CLR,,0.00,WeatherDisplay:10.37,2013-06-19 19:06:00,
2013-06-19 14:07:00,84.4,37.6,29.18,East,90,5.4,5.4,19,0.00,CLR,,0.00,WeatherDisplay:10.37,2013-06-19 19:07:00,
2013-06-19 14:10:00,83.8,37.2,29.18,East,90,8.1,8.1,19,0.00,CLR,,0.00,WeatherDisplay:10.37,2013-06-19 19:10:00,
2013-06-19 14:11:00,83.7,37.0,29.18,NE,45,6.9,6.9,19,0.00,CLR,,0.00,WeatherDisplay:10.37,2013-06-19 19:11:00,
2013-06-19 14:12:00,83.7,37.0,29.18,West,270,4.6,4.6,19,0.00,CLR,,0.00,WeatherDisplay:10.37,2013-06-19 19:12:00,
2013-06-19 14:15:00,83.8,37.2,29.18,ESE,112,3.5,3.5,19,0.00,CLR,,0.00,WeatherDisplay:10.37,2013-06-19 19:15:00,
2013-06-19 14:17:00,84.2,36.1,29.18,NE,45,2.4,2.4,18,0.00,CLR,,0.00,WeatherDisplay:10.37,2013-06-19 19:17:00,
2013-06-19 14:18:00,84.2,37.5,29.15,South,180,3.5,3.5,19,0.00,CLR,,0.00,WeatherDisplay:10.37,2013-06-19 19:18:00,
2013-06-19 14:21:00,84.9,38.0,29.15,NW,315,5.8,5.8,19,0.00,CLR,,0.00,WeatherDisplay:10.37,2013-06-19 19:21:00,
2013-06-19 14:24:00,85.3,38.3,29.15,ENE,68,5.8,5.8,19,0.00,CLR,,0.00,WeatherDisplay:10.37,2013-06-19 19:24:00,
2013-06-19 14:25:00,85.5,38.5,29.15,East,90,5.8,5.8,19,0.00,CLR,,0.00,WeatherDisplay:10.37,2013-06-19 19:25:00,
2013-06-19 14:29:00,85.8,38.8,29.15,NE,45,5.8,5.8,19,0.00,CLR,,0.00,WeatherDisplay:10.37,2013-06-19 19:29:00,
2013-06-19 14:30:00,85.5,37.1,29.15,NE,45,5.6,5.6,18,0.00,CLR,,0.00,WeatherDisplay:10.37,2013-06-19 19:30:00,
2013-06-19 14:31:00,85.1,33.8,29.15,NE,45,5.8,5.8,16,0.00,CLR,,0.00,WeatherDisplay:10.37,2013-06-19 19:31:00,
2013-06-19 14:32:00,85.1,33.8,29.15,NE,45,5.8,5.8,16,0.00,CLR,,0.00,WeatherDisplay:10.37,2013-06-19 19:32:00,
2013-06-19 14:34:00,85.5,37.1,29.18,ESE,112,2.0,2.0,18,0.00,CLR,,0.00,WeatherDisplay:10.37,2013-06-19 19:34:00,
2013-06-19 14:37:00,85.6,37.3,29.18,ENE,68,3.5,3.5,18,0.00,CLR,,0.00,WeatherDisplay:10.37,2013-06-19 19:37:00,
2013-06-19 14:38:00,85.8,37.4,29.18,East,90,3.5,3.5,18,0.00,CLR,,0.00,WeatherDisplay:10.37,2013-06-19 19:38:00,
2013-06-19 14:39:00,85.8,37.4,29.18,NE,54,2.0,0.0,18,0.00,CLR,,0.00,WeatherDisplay:10.37,2013-06-19 19:39:00,
2013-06-19 14:40:00,85.8,37.4,29.18,ESE,112,5.8,5.8,18,0.00,CLR,,0.00,WeatherDisplay:10.37,2013-06-19 19:40:00,
2013-06-19 14:42:00,85.6,34.3,29.18,North,0,5.8,5.8,16,0.00,CLR,,0.00,WeatherDisplay:10.37,2013-06-19 19:42:00,
2013-06-19 14:43:00,85.6,34.3,29.18,NNW,338,4.6,4.6,16,0.00,CLR,,0.00,WeatherDisplay:10.37,2013-06-19 19:43:00,
2013-06-19 14:44:00,85.4,34.1,29.18,NE,51,3.0,0.0,16,0.00,CLR,,0.00,WeatherDisplay:10.37,2013-06-19 19:44:00,
2013-06-19 14:45:00,85.1,33.8,29.18,NE,45,5.8,5.9,16,0.00,CLR,,0.00,WeatherDisplay:10.37,2013-06-19 19:45:00,
2013-06-19 14:46:00,85.1,33.8,29.18,ENE,68,5.8,5.8,16,0.00,CLR,,0.00,WeatherDisplay:10.37,2013-06-19 19:46:00,
2013-06-19 14:48:00,85.5,34.1,29.18,SW,225,3.6,0.0,16,0.00,CLR,,0.00,WeatherDisplay:10.37,2013-06-19 19:48:00,
2013-06-19 14:49:00,85.6,34.3,29.18,NE,46,1.0,0.0,16,0.00,CLR,,0.00,WeatherDisplay:10.37,2013-06-19 19:49:00,
2013-06-19 14:52:00,85.8,34.4,29.18,ESE,112,4.6,4.6,16,0.00,CLR,,0.00,WeatherDisplay:10.37,2013-06-19 19:52:00,
2013-06-19 14:53:00,85.8,34.4,29.18,SE,135,4.6,4.6,16,0.00,CLR,,0.00,WeatherDisplay:10.37,2013-06-19 19:53:00,
2013-06-19 14:54:00,86.0,34.6,29.18,NE,45,4.0,4.0,16,0.00,CLR,,0.00,WeatherDisplay:10.37,2013-06-19 19:54:00,
2013-06-19 14:55:00,85.3,28.8,29.18,ENE,68,4.7,4.7,13,0.00,CLR,,0.00,WeatherDisplay:10.37,2013-06-19 19:55:00,
2013-06-19 14:57:00,85.5,34.1,29.18,West,270,2.4,2.6,16,0.00,CLR,,0.00,WeatherDisplay:10.37,2013-06-19 19:57:00,
2013-06-19 14:58:00,85.6,34.3,29.18,SW,225,3.5,3.5,16,0.00,CLR,,0.00,WeatherDisplay:10.37,2013-06-19 19:58:00,
2013-06-19 14:59:00,85.6,34.3,29.18,SW,225,2.3,2.3,16,0.00,CLR,,0.00,WeatherDisplay:10.37,2013-06-19 19:59:00,
2013-06-19 15:01:00,86.0,34.6,29.18,SSW,202,4.6,4.6,16,0.00,CLR,,0.00,WeatherDisplay:10.37,2013-06-19 20:01:00,
2013-06-19 15:03:00,86.4,34.9,29.15,ESE,112,6.9,6.9,16,0.00,CLR,,0.00,WeatherDisplay:10.37,2013-06-19 20:03:00,
2013-06-19 15:04:00,86.4,34.9,29.15,SSE,154,5.0,0.0,16,0.00,CLR,,0.00,WeatherDisplay:10.37,2013-06-19 20:04:00,
2013-06-19 15:05:00,86.0,34.6,29.15,SSE,158,3.5,3.5,16,0.00,CLR,,0.00,WeatherDisplay:10.37,2013-06-19 20:05:00,
2013-06-19 15:08:00,86.5,38.0,29.15,SE,135,6.9,6.9,18,0.00,CLR,,0.00,WeatherDisplay:10.37,2013-06-19 20:08:00,
2013-06-19 15:09:00,86.7,35.1,29.15,South,180,6.9,6.9,16,0.00,CLR,,0.00,WeatherDisplay:10.37,2013-06-19 20:09:00,
2013-06-19 15:10:00,86.9,38.3,29.15,SSE,158,6.9,6.9,18,0.00,CLR,,0.00,WeatherDisplay:10.37,2013-06-19 20:10:00,
2013-06-19 15:11:00,86.9,38.3,29.15,South,180,5.8,5.8,18,0.00,CLR,,0.00,WeatherDisplay:10.37,2013-06-19 20:11:00,
2013-06-19 15:14:00,87.1,35.4,29.15,SSE,165,0.0,0.0,16,0.00,CLR,,0.00,WeatherDisplay:10.37,2013-06-19 20:14:00,
2013-06-19 15:15:00,87.1,35.4,29.15,WSW,248,4.3,4.3,16,0.00,CLR,,0.00,WeatherDisplay:10.37,2013-06-19 20:15:00,
2013-06-19 15:16:00,86.9,35.3,29.15,NW,315,4.6,4.6,16,0.00,CLR,,0.00,WeatherDisplay:10.37,2013-06-19 20:16:00,
2013-06-19 15:18:00,87.1,35.4,29.15,SSE,158,3.6,3.6,16,0.00,CLR,,0.00,WeatherDisplay:10.37,2013-06-19 20:18:00,
2013-06-19 15:20:00,87.1,38.4,29.15,ESE,112,3.5,3.5,18,0.00,CLR,,0.00,WeatherDisplay:10.37,2013-06-19 20:20:00,
2013-06-19 15:21:00,87.3,38.6,29.15,SSE,158,3.5,3.5,18,0.00,CLR,,0.00,WeatherDisplay:10.37,2013-06-19 20:21:00,
2013-06-19 15:22:00,87.1,38.4,29.15,ESE,112,3.5,3.5,18,0.00,CLR,,0.00,WeatherDisplay:10.37,2013-06-19 20:22:00,
2013-06-19 15:24:00,87.3,35.6,29.15,NW,315,2.6,0.0,16,0.00,CLR,,0.00,WeatherDisplay:10.37,2013-06-19 20:24:00,
2013-06-19 15:25:00,87.3,35.6,29.15,ENE,68,4.6,4.6,16,0.00,CLR,,0.00,WeatherDisplay:10.37,2013-06-19 20:25:00,
2013-06-19 15:28:00,86.2,29.6,29.15,NE,45,8.1,8.1,13,0.00,CLR,,0.00,WeatherDisplay:10.37,2013-06-19 20:28:00,
2013-06-19 15:29:00,85.8,29.3,29.15,NE,45,11.5,11.5,13,0.00,CLR,,0.00,WeatherDisplay:10.37,2013-06-19 20:29:00,
2013-06-19 15:30:00,85.5,34.1,29.15,East,90,11.5,11.5,16,0.00,CLR,,0.00,WeatherDisplay:10.37,2013-06-19 20:30:00,
2013-06-19 15:31:00,85.5,34.1,29.15,ENE,68,5.8,5.8,16,0.00,CLR,,0.00,WeatherDisplay:10.37,2013-06-19 20:31:00,
2013-06-19 15:35:00,85.5,34.1,29.15,SE,135,4.6,4.6,16,0.00,CLR,,0.00,WeatherDisplay:10.37,2013-06-19 20:35:00,
2013-06-19 15:36:00,85.5,34.1,29.15,SSE,158,4.6,4.6,16,0.00,CLR,,0.00,WeatherDisplay:10.37,2013-06-19 20:36:00,
2013-06-19 15:38:00,85.6,34.3,29.15,East,90,5.8,5.8,16,0.00,CLR,,0.00,WeatherDisplay:10.37,2013-06-19 20:38:00,
2013-06-19 15:41:00,86.0,34.6,29.15,ENE,68,4.7,4.7,16,0.00,CLR,,0.00,WeatherDisplay:10.37,2013-06-19 20:41:00,
2013-06-19 15:42:00,85.8,34.4,29.15,SE,135,5.8,5.8,16,0.00,CLR,,0.00,WeatherDisplay:10.37,2013-06-19 20:42:00,
2013-06-19 15:44:00,86.2,37.7,29.15,SE,135,4.6,4.6,18,0.00,CLR,,0.00,WeatherDisplay:10.37,2013-06-19 20:44:00,
2013-06-19 15:47:00,86.5,38.0,29.15,South,180,3.5,3.5,18,0.00,CLR,,0.00,WeatherDisplay:10.37,2013-06-19 20:47:00,
2013-06-19 15:48:00,86.5,38.0,29.15,SSE,158,3.5,3.5,18,0.00,CLR,,0.00,WeatherDisplay:10.37,2013-06-19 20:48:00,
2013-06-19 15:49:00,86.7,38.1,29.15,ESE,112,4.6,4.6,18,0.00,CLR,,0.00,WeatherDisplay:10.37,2013-06-19 20:49:00,
2013-06-19 15:50:00,86.5,35.0,29.15,NNE,22,6.9,6.9,16,0.00,CLR,,0.00,WeatherDisplay:10.37,2013-06-19 20:50:00,
2013-06-19 15:51:00,86.5,35.0,29.15,ESE,112,3.6,3.6,16,0.00,CLR,,0.00,WeatherDisplay:10.37,2013-06-19 20:51:00,
2013-06-19 15:52:00,86.7,38.1,29.15,ESE,112,5.8,5.8,18,0.00,CLR,,0.00,WeatherDisplay:10.37,2013-06-19 20:52:00,
2013-06-19 15:54:00,86.5,35.0,29.15,ESE,112,3.5,3.5,16,0.00,CLR,,0.00,WeatherDisplay:10.37,2013-06-19 20:54:00,
2013-06-19 15:56:00,86.4,34.9,29.15,ESE,112,2.3,2.3,16,0.00,CLR,,0.00,WeatherDisplay:10.37,2013-06-19 20:56:00,
2013-06-19 15:58:00,86.7,35.1,29.15,ENE,68,2.6,2.6,16,0.00,CLR,,0.00,WeatherDisplay:10.37,2013-06-19 20:58:00,
2013-06-19 15:59:00,86.4,34.9,29.15,ENE,68,4.6,4.7,16,0.00,CLR,,0.00,WeatherDisplay:10.37,2013-06-19 20:59:00,
2013-06-19 16:00:00,86.4,34.9,29.15,ESE,112,5.8,5.8,16,0.00,CLR,,0.00,WeatherDisplay:10.37,2013-06-19 21:00:00,
2013-06-19 16:02:00,86.9,35.3,29.15,SSE,158,4.6,4.6,16,0.00,CLR,,0.00,WeatherDisplay:10.37,2013-06-19 21:02:00,
2013-06-19 16:04:00,86.9,35.3,29.15,East,90,6.0,6.0,16,0.00,CLR,,0.00,WeatherDisplay:10.37,2013-06-19 21:04:00,
2013-06-19 16:05:00,86.9,35.3,29.15,East,90,5.8,5.8,16,0.00,CLR,,0.00,WeatherDisplay:10.37,2013-06-19 21:05:00,
2013-06-19 16:07:00,86.5,35.0,29.15,NE,45,4.0,4.0,16,0.00,CLR,,0.00,WeatherDisplay:10.37,2013-06-19 21:07:00,
2013-06-19 16:09:00,86.4,34.9,29.15,East,97,3.0,0.0,16,0.00,CLR,,0.00,WeatherDisplay:10.37,2013-06-19 21:09:00,
2013-06-19 16:10:00,86.4,34.9,29.15,NE,45,4.6,4.6,16,0.00,CLR,,0.00,WeatherDisplay:10.37,2013-06-19 21:10:00,
2013-06-19 16:11:00,86.2,34.7,29.15,NE,45,4.6,4.6,16,0.00,CLR,,0.00,WeatherDisplay:10.37,2013-06-19 21:11:00,
2013-06-19 16:13:00,86.2,34.7,29.15,ESE,112,5.6,5.6,16,0.00,CLR,,0.00,WeatherDisplay:10.37,2013-06-19 21:13:00,
2013-06-19 16:15:00,86.5,35.0,29.15,NNE,22,4.3,4.3,16,0.00,CLR,,0.00,WeatherDisplay:10.37,2013-06-19 21:15:00,
2013-06-19 16:18:00,86.4,29.7,29.15,NNW,338,3.5,3.5,13,0.00,CLR,,0.00,WeatherDisplay:10.37,2013-06-19 21:18:00,
2013-06-19 16:19:00,86.2,34.7,29.15,ESE,112,4.6,4.6,16,0.00,CLR,,0.00,WeatherDisplay:10.37,2013-06-19 21:19:00,
2013-06-19 16:20:00,86.2,34.7,29.15,SE,135,4.6,4.6,16,0.00,CLR,,0.00,WeatherDisplay:10.37,2013-06-19 21:20:00,
2013-06-19 16:21:00,86.2,34.7,29.15,ENE,68,3.6,4.0,16,0.00,CLR,,0.00,WeatherDisplay:10.37,2013-06-19 21:21:00,
2013-06-19 16:24:00,85.6,29.1,29.15,ESE,112,4.6,4.6,13,0.00,CLR,,0.00,WeatherDisplay:10.37,2013-06-19 21:24:00,
2013-06-19 16:25:00,85.6,34.3,29.15,SE,135,4.6,4.6,16,0.00,CLR,,0.00,WeatherDisplay:10.37,2013-06-19 21:25:00,
2013-06-19 16:26:00,85.6,29.1,29.15,NNE,22,3.5,3.5,13,0.00,CLR,,0.00,WeatherDisplay:10.37,2013-06-19 21:26:00,
2013-06-19 16:29:00,85.1,28.7,29.15,ENE,68,3.5,3.5,13,0.00,CLR,,0.00,WeatherDisplay:10.37,2013-06-19 21:29:00,
2013-06-19 16:30:00,85.1,28.7,29.15,ESE,112,3.5,3.5,13,0.00,CLR,,0.00,WeatherDisplay:10.37,2013-06-19 21:30:00,
2013-06-19 16:31:00,85.1,28.7,29.15,ESE,112,3.5,3.5,13,0.00,CLR,,0.00,WeatherDisplay:10.37,2013-06-19 21:31:00,
2013-06-19 16:32:00,85.1,28.7,29.15,East,90,0.0,0.0,13,0.00,CLR,,0.00,WeatherDisplay:10.37,2013-06-19 21:32:00,
2013-06-19 16:33:00,85.1,33.8,29.15,NNW,338,2.9,2.9,16,0.00,CLR,,0.00,WeatherDisplay:10.37,2013-06-19 21:33:00,
2013-06-19 16:34:00,85.1,33.8,29.15,NE,53,2.0,0.0,16,0.00,CLR,,0.00,WeatherDisplay:10.37,2013-06-19 21:34:00,
2013-06-19 16:37:00,85.3,34.0,29.15,ENE,68,3.6,0.0,16,0.00,CLR,,0.00,WeatherDisplay:10.37,2013-06-19 21:37:00,
2013-06-19 16:38:00,85.3,34.0,29.15,ENE,68,3.5,3.5,16,0.00,CLR,,0.00,WeatherDisplay:10.37,2013-06-19 21:38:00,
2013-06-19 16:39:00,84.7,28.4,29.15,ESE,112,3.5,3.5,13,0.00,CLR,,0.00,WeatherDisplay:10.37,2013-06-19 21:39:00,
2013-06-19 16:40:00,84.7,28.4,29.15,NNE,22,3.5,3.5,13,0.00,CLR,,0.00,WeatherDisplay:10.37,2013-06-19 21:40:00,
2013-06-19 16:42:00,84.7,33.6,29.15,NW,315,4.6,4.6,16,0.00,CLR,,0.00,WeatherDisplay:10.37,2013-06-19 21:42:00,
2013-06-19 16:45:00,84.4,33.3,29.15,SSW,202,1.1,1.1,16,0.00,CLR,,0.00,WeatherDisplay:10.37,2013-06-19 21:45:00,
2013-06-19 16:47:00,84.2,33.1,29.15,SSW,202,0.0,0.0,16,0.00,CLR,,0.00,WeatherDisplay:10.37,2013-06-19 21:47:00,
2013-06-19 16:48:00,84.0,33.0,29.15,SE,135,1.1,0.0,16,0.00,CLR,,0.00,WeatherDisplay:10.37,2013-06-19 21:48:00,
2013-06-19 16:49:00,84.0,33.0,29.15,SE,135,2.2,2.2,16,0.00,CLR,,0.00,WeatherDisplay:10.37,2013-06-19 21:49:00,
2013-06-19 16:53:00,83.7,32.7,29.15,NW,315,1.1,1.1,16,0.00,CLR,,0.00,WeatherDisplay:10.37,2013-06-19 21:53:00,
2013-06-19 16:54:00,83.7,32.7,29.15,SSE,158,4.7,4.7,16,0.00,CLR,,0.00,WeatherDisplay:10.37,2013-06-19 21:54:00,
2013-06-19 16:55:00,83.5,32.5,29.15,ESE,112,4.6,4.6,16,0.00,CLR,,0.00,WeatherDisplay:10.37,2013-06-19 21:55:00,
2013-06-19 16:58:00,83.1,32.3,29.15,SE,135,3.5,3.6,16,0.00,CLR,,0.00,WeatherDisplay:10.37,2013-06-19 21:58:00,
2013-06-19 17:00:00,83.1,32.3,29.15,SE,135,3.5,3.5,16,0.00,CLR,,0.00,WeatherDisplay:10.37,2013-06-19 22:00:00,
2013-06-19 17:01:00,83.1,32.3,29.15,SE,135,0.0,0.0,16,0.00,CLR,,0.00,WeatherDisplay:10.37,2013-06-19 22:01:00,
2013-06-19 17:05:00,83.1,36.6,29.15,South,180,4.6,4.6,19,0.00,CLR,,0.00,WeatherDisplay:10.37,2013-06-19 22:05:00,
2013-06-19 17:06:00,83.3,36.7,29.15,SSE,158,3.5,3.5,19,0.00,CLR,,0.00,WeatherDisplay:10.37,2013-06-19 22:06:00,
2013-06-19 17:07:00,83.5,36.9,29.15,South,180,4.0,4.0,19,0.00,CLR,,0.00,WeatherDisplay:10.37,2013-06-19 22:07:00,
2013-06-19 17:08:00,83.5,36.9,29.15,South,180,4.6,4.6,19,0.00,CLR,,0.00,WeatherDisplay:10.37,2013-06-19 22:08:00,
2013-06-19 17:12:00,83.7,37.0,29.15,SE,135,2.3,2.3,19,0.00,CLR,,0.00,WeatherDisplay:10.37,2013-06-19 22:12:00,
2013-06-19 17:13:00,83.8,37.2,29.15,SSE,158,1.1,0.0,19,0.00,CLR,,0.00,WeatherDisplay:10.37,2013-06-19 22:13:00,
2013-06-19 17:15:00,83.8,37.2,29.15,SSE,158,3.5,3.5,19,0.00,CLR,,0.00,WeatherDisplay:10.37,2013-06-19 22:15:00,
2013-06-19 17:17:00,84.0,37.3,29.12,South,180,2.3,2.3,19,0.00,CLR,,0.00,WeatherDisplay:10.37,2013-06-19 22:17:00,
2013-06-19 17:18:00,84.0,37.3,29.12,South,180,2.6,2.6,19,0.00,CLR,,0.00,WeatherDisplay:10.37,2013-06-19 22:18:00,
2013-06-19 17:19:00,84.0,37.3,29.12,South,180,3.3,3.3,19,0.00,CLR,,0.00,WeatherDisplay:10.37,2013-06-19 22:19:00,
2013-06-19 17:22:00,84.0,37.3,29.12,South,180,4.6,4.6,19,0.00,CLR,,0.00,WeatherDisplay:10.37,2013-06-19 22:22:00,
2013-06-19 17:23:00,84.0,37.3,29.12,SSW,202,4.6,4.6,19,0.00,CLR,,0.00,WeatherDisplay:10.37,2013-06-19 22:23:00,
2013-06-19 17:24:00,84.0,37.3,29.12,SSW,202,1.1,1.1,19,0.00,CLR,,0.00,WeatherDisplay:10.37,2013-06-19 22:24:00,
2013-06-19 17:27:00,84.0,37.3,29.12,SE,135,4.6,4.6,19,0.00,CLR,,0.00,WeatherDisplay:10.37,2013-06-19 22:27:00,
2013-06-19 17:28:00,84.0,37.3,29.12,SSE,158,4.3,4.3,19,0.00,CLR,,0.00,WeatherDisplay:10.37,2013-06-19 22:28:00,
2013-06-19 17:29:00,84.0,37.3,29.12,South,180,4.6,4.6,19,0.00,CLR,,0.00,WeatherDisplay:10.37,2013-06-19 22:29:00,
2013-06-19 17:32:00,84.0,37.3,29.15,SSE,158,3.5,3.5,19,0.00,CLR,,0.00,WeatherDisplay:10.37,2013-06-19 22:32:00,
2013-06-19 17:34:00,84.0,37.3,29.15,South,180,5.8,5.8,19,0.00,CLR,,0.00,WeatherDisplay:10.37,2013-06-19 22:34:00,
2013-06-19 17:35:00,84.0,37.3,29.15,South,180,5.8,5.8,19,0.00,CLR,,0.00,WeatherDisplay:10.37,2013-06-19 22:35:00,
2013-06-19 17:37:00,84.0,37.3,29.15,SE,135,0.0,0.0,19,0.00,CLR,,0.00,WeatherDisplay:10.37,2013-06-19 22:37:00,
2013-06-19 17:39:00,83.8,37.2,29.15,ESE,112,5.8,5.8,19,0.00,CLR,,0.00,WeatherDisplay:10.37,2013-06-19 22:39:00,
2013-06-19 17:40:00,83.8,37.2,29.15,ESE,112,4.7,4.7,19,0.00,CLR,,0.00,WeatherDisplay:10.37,2013-06-19 22:40:00,
2013-06-19 17:43:00,83.8,37.2,29.15,SE,135,4.6,4.6,19,0.00,CLR,,0.00,WeatherDisplay:10.37,2013-06-19 22:43:00,
2013-06-19 17:44:00,83.7,37.0,29.15,ESE,108,2.0,0.0,19,0.00,CLR,,0.00,WeatherDisplay:10.37,2013-06-19 22:44:00,
2013-06-19 17:45:00,83.7,37.0,29.15,ESE,112,1.1,1.1,19,0.00,CLR,,0.00,WeatherDisplay:10.37,2013-06-19 22:45:00,
2013-06-19 17:47:00,83.7,37.0,29.15,SSW,202,2.3,2.3,19,0.00,CLR,,0.00,WeatherDisplay:10.37,2013-06-19 22:47:00,
2013-06-19 17:48:00,83.5,36.9,29.15,SE,135,5.8,5.8,19,0.00,CLR,,0.00,WeatherDisplay:10.37,2013-06-19 22:48:00,
2013-06-19 17:49:00,83.5,36.9,29.15,SE,135,3.0,0.0,19,0.00,CLR,,0.00,WeatherDisplay:10.37,2013-06-19 22:49:00,
2013-06-19 17:51:00,83.3,36.7,29.15,ESE,112,3.5,3.5,19,0.00,CLR,,0.00,WeatherDisplay:10.37,2013-06-19 22:51:00,
2013-06-19 17:54:00,83.1,36.6,29.15,SE,135,3.5,3.5,19,0.00,CLR,,0.00,WeatherDisplay:10.37,2013-06-19 22:54:00,
2013-06-19 17:55:00,83.1,36.6,29.15,SE,135,2.3,2.3,19,0.00,CLR,,0.00,WeatherDisplay:10.37,2013-06-19 22:55:00,
2013-06-19 17:56:00,83.1,36.6,29.15,SE,135,0.0,0.0,19,0.00,CLR,,0.00,WeatherDisplay:10.37,2013-06-19 22:56:00,
2013-06-19 17:59:00,83.1,36.6,29.15,SSE,158,3.3,3.3,19,0.00,CLR,,0.00,WeatherDisplay:10.37,2013-06-19 22:59:00,
2013-06-19 18:01:00,83.1,36.6,29.15,South,180,2.3,2.3,19,0.00,CLR,,0.00,WeatherDisplay:10.37,2013-06-19 23:01:00,
2013-06-19 18:03:00,83.1,36.6,29.15,SE,135,2.3,2.3,19,0.00,CLR,,0.00,WeatherDisplay:10.37,2013-06-19 23:03:00,
2013-06-19 18:04:00,83.1,36.6,29.15,SE,135,2.3,2.3,19,0.00,CLR,,0.00,WeatherDisplay:10.37,2013-06-19 23:04:00,
2013-06-19 18:05:00,83.1,36.6,29.15,SE,135,4.9,4.9,19,0.00,CLR,,0.00,WeatherDisplay:10.37,2013-06-19 23:05:00,
2013-06-19 18:06:00,83.1,36.6,29.15,SSE,158,5.8,5.8,19,0.00,CLR,,0.00,WeatherDisplay:10.37,2013-06-19 23:06:00,
2013-06-19 18:07:00,83.1,36.6,29.15,South,180,4.6,4.6,19,0.00,CLR,,0.00,WeatherDisplay:10.37,2013-06-19 23:07:00,
2013-06-19 18:09:00,83.1,36.6,29.15,South,180,3.5,3.5,19,0.00,CLR,,0.00,WeatherDisplay:10.37,2013-06-19 23:09:00,
2013-06-19 18:10:00,83.1,36.6,29.15,South,180,2.3,2.3,19,0.00,CLR,,0.00,WeatherDisplay:10.37,2013-06-19 23:10:00,
2013-06-19 18:13:00,83.3,36.7,29.15,South,180,4.3,4.3,19,0.00,CLR,,0.00,WeatherDisplay:10.37,2013-06-19 23:13:00,
2013-06-19 18:14:00,83.3,36.7,29.15,SE,135,4.6,4.6,19,0.00,CLR,,0.00,WeatherDisplay:10.37,2013-06-19 23:14:00,
2013-06-19 18:15:00,83.1,36.6,29.15,East,90,3.5,3.5,19,0.00,CLR,,0.00,WeatherDisplay:10.37,2013-06-19 23:15:00,
2013-06-19 18:19:00,83.1,36.6,29.12,SE,135,3.5,3.5,19,0.00,CLR,,0.00,WeatherDisplay:10.37,2013-06-19 23:19:00,
2013-06-19 18:20:00,83.3,36.7,29.12,South,180,3.8,3.8,19,0.00,CLR,,0.00,WeatherDisplay:10.37,2013-06-19 23:20:00,
2013-06-19 18:21:00,83.3,36.7,29.12,SE,135,4.3,4.3,19,0.00,CLR,,0.00,WeatherDisplay:10.37,2013-06-19 23:21:00,
2013-06-19 18:24:00,83.3,36.7,29.12,SSE,158,5.8,5.8,19,0.00,CLR,,0.00,WeatherDisplay:10.37,2013-06-19 23:24:00,
2013-06-19 18:26:00,83.1,36.6,29.12,SSE,158,4.6,4.6,19,0.00,CLR,,0.00,WeatherDisplay:10.37,2013-06-19 23:26:00,
2013-06-19 18:27:00,83.1,36.6,29.12,SE,135,4.6,4.6,19,0.00,CLR,,0.00,WeatherDisplay:10.37,2013-06-19 23:27:00,
2013-06-19 18:30:00,82.9,36.4,29.12,ESE,112,3.5,3.5,19,0.00,CLR,,0.00,WeatherDisplay:10.37,2013-06-19 23:30:00,
2013-06-19 18:31:00,82.8,36.3,29.12,East,90,2.9,2.9,19,0.00,CLR,,0.00,WeatherDisplay:10.37,2013-06-19 23:31:00,
2013-06-19 18:32:00,82.8,36.3,29.12,SE,135,2.6,2.6,19,0.00,CLR,,0.00,WeatherDisplay:10.37,2013-06-19 23:32:00,
2013-06-19 18:33:00,82.6,36.1,29.12,ESE,112,2.9,0.0,19,0.00,CLR,,0.00,WeatherDisplay:10.37,2013-06-19 23:33:00,
2013-06-19 18:34:00,82.6,36.1,29.12,SE,127,1.0,0.0,19,0.00,CLR,,0.00,WeatherDisplay:10.37,2013-06-19 23:34:00,
2013-06-19 18:36:00,82.6,36.1,29.12,East,90,2.3,2.3,19,0.00,CLR,,0.00,WeatherDisplay:10.37,2013-06-19 23:36:00,
2013-06-19 18:39:00,82.4,36.0,29.12,ESE,112,3.5,3.5,19,0.00,CLR,,0.00,WeatherDisplay:10.37,2013-06-19 23:39:00,
2013-06-19 18:40:00,82.4,36.0,29.12,East,90,4.9,4.9,19,0.00,CLR,,0.00,WeatherDisplay:10.37,2013-06-19 23:40:00,
2013-06-19 18:41:00,82.4,36.0,29.12,SE,135,4.6,4.6,19,0.00,CLR,,0.00,WeatherDisplay:10.37,2013-06-19 23:41:00,
2013-06-19 18:42:00,82.2,37.1,29.12,South,180,3.1,3.1,20,0.00,CLR,,0.00,WeatherDisplay:10.37,2013-06-19 23:42:00,
2013-06-19 18:46:00,82.0,37.0,29.12,SSE,158,2.3,2.3,20,0.00,CLR,,0.00,WeatherDisplay:10.37,2013-06-19 23:46:00,
2013-06-19 18:47:00,82.0,37.0,29.12,SE,135,4.3,4.3,20,0.00,CLR,,0.00,WeatherDisplay:10.37,2013-06-19 23:47:00,
2013-06-19 18:49:00,82.0,37.0,29.15,SE,142,2.0,0.0,20,0.00,CLR,,0.00,WeatherDisplay:10.37,2013-06-19 23:49:00,
2013-06-19 18:52:00,81.9,36.8,29.15,SSE,158,2.3,2.3,20,0.00,CLR,,0.00,WeatherDisplay:10.37,2013-06-19 23:52:00,
2013-06-19 18:54:00,81.7,36.7,29.15,SE,135,4.6,4.6,20,0.00,CLR,,0.00,WeatherDisplay:10.37,2013-06-19 23:54:00,
2013-06-19 18:55:00,81.7,36.7,29.15,SE,135,2.3,0.0,20,0.00,CLR,,0.00,WeatherDisplay:10.37,2013-06-19 23:55:00,
2013-06-19 18:56:00,81.7,36.7,29.15,ESE,112,0.0,0.0,20,0.00,CLR,,0.00,WeatherDisplay:10.37,2013-06-19 23:56:00,
2013-06-19 18:58:00,81.5,36.5,29.15,South,180,0.0,0.0,20,0.00,CLR,,0.00,WeatherDisplay:10.37,2013-06-19 23:58:00,
2013-06-19 18:59:00,81.5,36.5,29.15,SE,136,0.0,0.0,20,0.00,CLR,,0.00,WeatherDisplay:10.37,2013-06-19 23:59:00,
2013-06-19 19:02:00,81.3,36.4,29.15,SE,135,0.0,0.0,20,0.00,CLR,,0.00,WeatherDisplay:10.37,2013-06-20 00:02:00,
2013-06-19 19:03:00,81.1,36.2,29.15,SE,135,0.0,0.0,20,0.00,CLR,,0.00,WeatherDisplay:10.37,2013-06-20 00:03:00,
2013-06-19 19:04:00,81.1,36.2,29.15,SE,136,0.0,0.0,20,0.00,CLR,,0.00,WeatherDisplay:10.37,2013-06-20 00:04:00,
2013-06-19 19:05:00,81.1,36.2,29.15,SSE,158,1.1,0.0,20,0.00,CLR,,0.00,WeatherDisplay:10.37,2013-06-20 00:05:00,
2013-06-19 19:07:00,81.0,36.1,29.15,ESE,112,0.0,0.0,20,0.00,CLR,,0.00,WeatherDisplay:10.37,2013-06-20 00:07:00,
2013-06-19 19:09:00,80.8,36.0,29.15,SE,134,0.0,0.0,20,0.00,CLR,,0.00,WeatherDisplay:10.37,2013-06-20 00:09:00,
2013-06-19 19:10:00,80.8,36.0,29.15,SE,135,0.0,0.0,20,0.00,CLR,,0.00,WeatherDisplay:10.37,2013-06-20 00:10:00,
2013-06-19 19:11:00,80.6,35.8,29.15,SE,135,0.0,0.0,20,0.00,CLR,,0.00,WeatherDisplay:10.37,2013-06-20 00:11:00,
2013-06-19 19:13:00,80.6,35.8,29.15,SE,135,0.0,0.0,20,0.00,CLR,,0.00,WeatherDisplay:10.37,2013-06-20 00:13:00,
2013-06-19 19:15:00,80.4,36.9,29.15,SE,135,0.0,0.0,21,0.00,CLR,,0.00,WeatherDisplay:10.37,2013-06-20 00:15:00,
2013-06-19 19:17:00,80.4,36.9,29.15,SE,135,0.0,0.0,21,0.00,CLR,,0.00,WeatherDisplay:10.37,2013-06-20 00:17:00,
2013-06-19 19:19:00,80.4,36.9,29.15,SE,135,0.0,0.0,21,0.00,CLR,,0.00,WeatherDisplay:10.37,2013-06-20 00:19:00,
2013-06-19 19:23:00,80.2,36.7,29.15,SE,135,0.0,0.0,21,0.00,CLR,,0.00,WeatherDisplay:10.37,2013-06-20 00:23:00,
2013-06-19 19:24:00,80.2,36.7,29.15,SE,135,0.0,0.0,21,0.00,CLR,,0.00,WeatherDisplay:10.37,2013-06-20 00:24:00,
2013-06-19 19:25:00,80.1,36.6,29.15,SE,135,0.0,0.0,21,0.00,CLR,,0.00,WeatherDisplay:10.37,2013-06-20 00:25:00,
2013-06-19 19:28:00,80.1,37.8,29.15,SE,135,0.0,0.0,22,0.00,CLR,,0.00,WeatherDisplay:10.37,2013-06-20 00:28:00,
2013-06-19 19:30:00,79.9,37.6,29.15,SE,135,0.0,0.0,22,0.00,CLR,,0.00,WeatherDisplay:10.37,2013-06-20 00:30:00,
2013-06-19 19:31:00,79.9,37.6,29.15,SE,135,0.0,0.0,22,0.00,CLR,,0.00,WeatherDisplay:10.37,2013-06-20 00:31:00,
2013-06-19 19:34:00,79.9,37.6,29.15,SE,135,0.0,0.0,22,0.00,CLR,,0.00,WeatherDisplay:10.37,2013-06-20 00:34:00,
2013-06-19 19:36:00,79.9,37.6,29.15,SE,135,0.0,0.0,22,0.00,CLR,,0.00,WeatherDisplay:10.37,2013-06-20 00:36:00,
2013-06-19 19:37:00,79.7,37.5,29.15,SE,135,0.0,0.0,22,0.00,CLR,,0.00,WeatherDisplay:10.37,2013-06-20 00:37:00,
2013-06-19 19:41:00,79.5,37.3,29.15,SSE,158,0.0,0.0,22,0.00,CLR,,0.00,WeatherDisplay:10.37,2013-06-20 00:41:00,
2013-06-19 19:42:00,79.5,38.5,29.15,SSE,158,0.0,0.0,23,0.00,CLR,,0.00,WeatherDisplay:10.37,2013-06-20 00:42:00,
2013-06-19 19:43:00,79.3,38.3,29.15,SSE,158,0.0,0.0,23,0.00,CLR,,0.00,WeatherDisplay:10.37,2013-06-20 00:43:00,
2013-06-19 19:44:00,79.3,38.3,29.15,SSE,147,0.0,0.0,23,0.00,CLR,,0.00,WeatherDisplay:10.37,2013-06-20 00:44:00,
2013-06-19 19:46:00,79.3,38.3,29.15,South,180,2.0,0.0,23,0.00,CLR,,0.00,WeatherDisplay:10.37,2013-06-20 00:46:00,
2013-06-19 19:47:00,79.2,38.2,29.15,South,180,2.3,0.0,23,0.00,CLR,,0.00,WeatherDisplay:10.37,2013-06-20 00:47:00,
2013-06-19 19:48:00,79.2,38.2,29.15,South,180,1.1,0.0,23,0.00,CLR,,0.00,WeatherDisplay:10.37,2013-06-20 00:48:00,
2013-06-19 19:49:00,79.2,38.2,29.15,South,180,0.0,0.0,23,0.00,CLR,,0.00,WeatherDisplay:10.37,2013-06-20 00:49:00,
2013-06-19 19:50:00,79.2,38.2,29.15,South,180,0.0,0.0,23,0.00,CLR,,0.00,WeatherDisplay:10.37,2013-06-20 00:50:00,
2013-06-19 19:52:00,79.2,38.2,29.15,South,180,0.0,0.0,23,0.00,CLR,,0.00,WeatherDisplay:10.37,2013-06-20 00:52:00,
2013-06-19 19:53:00,79.0,38.0,29.15,South,180,0.0,0.0,23,0.00,CLR,,0.00,WeatherDisplay:10.37,2013-06-20 00:53:00,
2013-06-19 19:54:00,79.0,38.0,29.15,South,180,0.0,0.0,23,0.00,CLR,,0.00,WeatherDisplay:10.37,2013-06-20 00:54:00,
2013-06-19 19:55:00,79.0,38.0,29.15,South,180,0.0,0.0,23,0.00,CLR,,0.00,WeatherDisplay:10.37,2013-06-20 00:55:00,
2013-06-19 19:57:00,78.8,37.9,29.15,South,180,0.0,0.0,23,0.00,CLR,,0.00,WeatherDisplay:10.37,2013-06-20 00:57:00,
2013-06-19 19:59:00,78.6,38.8,29.15,South,180,0.0,0.0,24,0.00,CLR,,0.00,WeatherDisplay:10.37,2013-06-20 00:59:00,
2013-06-19 20:00:00,78.6,38.8,29.15,South,180,0.0,0.0,24,0.00,CLR,,0.00,WeatherDisplay:10.37,2013-06-20 01:00:00,
2013-06-19 20:04:00,78.3,39.5,29.15,South,180,0.0,0.0,25,0.00,CLR,,0.00,WeatherDisplay:10.37,2013-06-20 01:04:00,
2013-06-19 20:05:00,78.1,39.4,29.15,South,180,0.0,0.0,25,0.00,CLR,,0.00,WeatherDisplay:10.37,2013-06-20 01:05:00,
2013-06-19 20:06:00,78.1,40.4,29.15,South,180,0.0,0.0,26,0.00,CLR,,0.00,WeatherDisplay:10.37,2013-06-20 01:06:00,
2013-06-19 20:09:00,77.9,40.2,29.15,South,180,0.0,0.0,26,0.00,CLR,,0.00,WeatherDisplay:10.37,2013-06-20 01:09:00,
2013-06-19 20:10:00,77.9,40.2,29.15,South,180,0.0,0.0,26,0.00,CLR,,0.00,WeatherDisplay:10.37,2013-06-20 01:10:00,
2013-06-19 20:11:00,77.7,40.1,29.15,South,180,0.0,0.0,26,0.00,CLR,,0.00,WeatherDisplay:10.37,2013-06-20 01:11:00,
2013-06-19 20:12:00,77.5,39.9,29.15,South,180,0.0,0.0,26,0.00,CLR,,0.00,WeatherDisplay:10.37,2013-06-20 01:12:00,
2013-06-19 20:14:00,77.4,40.8,29.15,South,180,0.0,0.0,27,0.00,CLR,,0.00,WeatherDisplay:10.37,2013-06-20 01:14:00,
2013-06-19 20:15:00,77.2,40.6,29.15,South,180,0.0,0.0,27,0.00,CLR,,0.00,WeatherDisplay:10.37,2013-06-20 01:15:00,
2013-06-19 20:17:00,77.0,40.4,29.15,South,180,0.0,0.0,27,0.00,CLR,,0.00,WeatherDisplay:10.37,2013-06-20 01:17:00,
2013-06-19 20:19:00,76.8,40.3,29.15,South,180,0.0,0.0,27,0.00,CLR,,0.00,WeatherDisplay:10.37,2013-06-20 01:19:00,
2013-06-19 20:21:00,76.8,40.3,29.15,South,180,0.0,0.0,27,0.00,CLR,,0.00,WeatherDisplay:10.37,2013-06-20 01:21:00,
2013-06-19 20:22:00,76.6,40.1,29.15,South,180,0.0,0.0,27,0.00,CLR,,0.00,WeatherDisplay:10.37,2013-06-20 01:22:00,
2013-06-19 20:24:00,76.5,40.0,29.15,South,180,0.0,0.0,27,0.00,CLR,,0.00,WeatherDisplay:10.37,2013-06-20 01:24:00,
2013-06-19 20:26:00,76.3,39.8,29.15,South,180,0.0,0.0,27,0.00,CLR,,0.00,WeatherDisplay:10.37,2013-06-20 01:26:00,
2013-06-19 20:27:00,76.3,39.8,29.15,South,180,0.0,0.0,27,0.00,CLR,,0.00,WeatherDisplay:10.37,2013-06-20 01:27:00,
2013-06-19 20:29:00,76.1,39.7,29.15,South,180,0.0,0.0,27,0.00,CLR,,0.00,WeatherDisplay:10.37,2013-06-20 01:29:00,
2013-06-19 20:30:00,75.9,39.5,29.15,South,180,0.0,0.0,27,0.00,CLR,,0.00,WeatherDisplay:10.37,2013-06-20 01:30:00,
2013-06-19 20:31:00,75.9,39.5,29.15,South,180,0.0,0.0,27,0.00,CLR,,0.00,WeatherDisplay:10.37,2013-06-20 01:31:00,
2013-06-19 20:32:00,75.7,39.4,29.15,South,180,0.0,0.0,27,0.00,CLR,,0.00,WeatherDisplay:10.37,2013-06-20 01:32:00,
2013-06-19 20:34:00,75.6,40.2,29.15,South,180,0.0,0.0,28,0.00,CLR,,0.00,WeatherDisplay:10.37,2013-06-20 01:34:00,
2013-06-19 20:35:00,75.6,40.2,29.15,South,180,0.0,0.0,28,0.00,CLR,,0.00,WeatherDisplay:10.37,2013-06-20 01:35:00,
2013-06-19 20:37:00,75.4,40.9,29.15,South,180,0.0,0.0,29,0.00,CLR,,0.00,WeatherDisplay:10.37,2013-06-20 01:37:00,
2013-06-19 20:39:00,75.2,41.6,29.15,South,180,0.0,0.0,30,0.00,CLR,,0.00,WeatherDisplay:10.37,2013-06-20 01:39:00,
2013-06-19 20:40:00,75.0,41.5,29.15,South,180,0.0,0.0,30,0.00,CLR,,0.00,WeatherDisplay:10.37,2013-06-20 01:40:00,
2013-06-19 20:42:00,75.0,41.5,29.15,South,180,0.0,0.0,30,0.00,CLR,,0.00,WeatherDisplay:10.37,2013-06-20 01:42:00,
2013-06-19 20:43:00,74.8,41.3,29.15,South,180,0.0,0.0,30,0.00,CLR,,0.00,WeatherDisplay:10.37,2013-06-20 01:43:00,
2013-06-19 20:45:00,74.8,42.2,29.15,South,180,0.0,0.0,31,0.00,CLR,,0.00,WeatherDisplay:10.37,2013-06-20 01:45:00,
2013-06-19 20:46:00,74.7,41.2,29.15,South,180,0.0,0.0,30,0.00,CLR,,0.00,WeatherDisplay:10.37,2013-06-20 01:46:00,
2013-06-19 20:48:00,74.5,41.0,29.15,South,180,0.0,0.0,30,0.00,CLR,,0.00,WeatherDisplay:10.37,2013-06-20 01:48:00,
2013-06-19 20:49:00,74.5,41.0,29.15,South,180,0.0,0.0,30,0.00,CLR,,0.00,WeatherDisplay:10.37,2013-06-20 01:49:00,
2013-06-19 20:50:00,74.5,41.0,29.15,South,180,0.0,0.0,30,0.00,CLR,,0.00,WeatherDisplay:10.37,2013-06-20 01:50:00,
2013-06-19 20:52:00,74.3,41.7,29.15,South,180,0.0,0.0,31,0.00,CLR,,0.00,WeatherDisplay:10.37,2013-06-20 01:52:00,
2013-06-19 20:53:00,74.3,41.7,29.15,South,180,0.0,0.0,31,0.00,CLR,,0.00,WeatherDisplay:10.37,2013-06-20 01:53:00,
2013-06-19 20:55:00,74.1,41.5,29.15,South,180,0.0,0.0,31,0.00,CLR,,0.00,WeatherDisplay:10.37,2013-06-20 01:55:00,
2013-06-19 20:57:00,73.9,41.4,29.15,South,180,0.0,0.0,31,0.00,CLR,,0.00,WeatherDisplay:10.37,2013-06-20 01:57:00,
2013-06-19 20:59:00,73.8,41.2,29.15,South,180,0.0,0.0,31,0.00,CLR,,0.00,WeatherDisplay:10.37,2013-06-20 01:59:00,
2013-06-19 21:02:00,73.6,41.1,29.15,South,180,0.0,0.0,31,0.00,CLR,,0.00,WeatherDisplay:10.37,2013-06-20 02:02:00,
2013-06-19 21:03:00,73.6,41.1,29.15,South,180,0.0,0.0,31,0.00,CLR,,0.00,WeatherDisplay:10.37,2013-06-20 02:03:00,
2013-06-19 21:04:00,73.5,41.0,29.15,South,180,0.0,0.0,31,0.00,CLR,,0.00,WeatherDisplay:10.37,2013-06-20 02:04:00,
2013-06-19 21:07:00,73.4,40.9,29.15,South,180,0.0,0.0,31,0.00,CLR,,0.00,WeatherDisplay:10.37,2013-06-20 02:07:00,
2013-06-19 21:08:00,73.2,40.8,29.15,South,180,0.0,0.0,31,0.00,CLR,,0.00,WeatherDisplay:10.37,2013-06-20 02:08:00,
2013-06-19 21:10:00,73.0,40.6,29.15,South,180,0.0,0.0,31,0.00,CLR,,0.00,WeatherDisplay:10.37,2013-06-20 02:10:00,
2013-06-19 21:11:00,73.0,40.6,29.15,South,180,0.0,0.0,31,0.00,CLR,,0.00,WeatherDisplay:10.37,2013-06-20 02:11:00,
2013-06-19 21:12:00,73.0,40.6,29.15,South,180,0.0,0.0,31,0.00,CLR,,0.00,WeatherDisplay:10.37,2013-06-20 02:12:00,
2013-06-19 21:14:00,73.0,40.6,29.15,South,180,0.0,0.0,31,0.00,CLR,,0.00,WeatherDisplay:10.37,2013-06-20 02:14:00,
2013-06-19 21:16:00,72.9,40.4,29.15,South,180,0.0,0.0,31,0.00,CLR,,0.00,WeatherDisplay:10.37,2013-06-20 02:16:00,
2013-06-19 21:17:00,72.7,40.3,29.15,South,180,0.0,0.0,31,0.00,CLR,,0.00,WeatherDisplay:10.37,2013-06-20 02:17:00,
2013-06-19 21:19:00,72.7,40.3,29.15,South,180,0.0,0.0,31,0.00,CLR,,0.00,WeatherDisplay:10.37,2013-06-20 02:19:00,
2013-06-19 21:20:00,72.5,40.1,29.15,South,180,0.0,0.0,31,0.00,CLR,,0.00,WeatherDisplay:10.37,2013-06-20 02:20:00,
2013-06-19 21:21:00,72.5,40.1,29.15,South,180,0.0,0.0,31,0.00,CLR,,0.00,WeatherDisplay:10.37,2013-06-20 02:21:00,
2013-06-19 21:24:00,72.3,40.0,29.15,South,175,0.0,0.0,31,0.00,CLR,,0.00,WeatherDisplay:10.37,2013-06-20 02:24:00,
2013-06-19 21:25:00,72.3,40.0,29.15,SSE,158,0.0,0.0,31,0.00,CLR,,0.00,WeatherDisplay:10.37,2013-06-20 02:25:00,
2013-06-19 21:26:00,72.3,40.0,29.15,SSE,158,0.0,0.0,31,0.00,CLR,,0.00,WeatherDisplay:10.37,2013-06-20 02:26:00,
2013-06-19 21:30:00,72.1,40.6,29.15,SE,135,0.0,0.0,32,0.00,CLR,,0.00,WeatherDisplay:10.37,2013-06-20 02:30:00,
2013-06-19 21:31:00,72.0,40.5,29.15,SE,135,0.0,0.0,32,0.00,CLR,,0.00,WeatherDisplay:10.37,2013-06-20 02:31:00,
2013-06-19 21:32:00,72.0,40.5,29.18,SE,135,0.0,0.0,32,0.00,CLR,,0.00,WeatherDisplay:10.37,2013-06-20 02:32:00,
2013-06-19 21:34:00,72.0,40.5,29.18,SE,135,0.0,0.0,32,0.00,CLR,,0.00,WeatherDisplay:10.37,2013-06-20 02:34:00,
2013-06-19 21:36:00,71.8,40.3,29.18,SE,135,0.0,0.0,32,0.00,CLR,,0.00,WeatherDisplay:10.37,2013-06-20 02:36:00,
2013-06-19 21:37:00,71.8,40.3,29.18,SE,135,0.0,0.0,32,0.00,CLR,,0.00,WeatherDisplay:10.37,2013-06-20 02:37:00,
2013-06-19 21:39:00,71.7,40.3,29.18,SE,135,0.0,0.0,32,0.00,CLR,,0.00,WeatherDisplay:10.37,2013-06-20 02:39:00,
2013-06-19 21:42:00,71.6,40.2,29.18,SE,135,0.0,0.0,32,0.00,CLR,,0.00,WeatherDisplay:10.37,2013-06-20 02:42:00,
2013-06-19 21:43:00,71.4,40.8,29.18,SE,135,0.0,0.0,33,0.00,CLR,,0.00,WeatherDisplay:10.37,2013-06-20 02:43:00,
2013-06-19 21:45:00,71.4,40.8,29.18,SE,135,0.0,0.0,33,0.00,CLR,,0.00,WeatherDisplay:10.37,2013-06-20 02:45:00,
2013-06-19 21:47:00,71.4,40.8,29.18,SE,135,0.0,0.0,33,0.00,CLR,,0.00,WeatherDisplay:10.37,2013-06-20 02:47:00,
2013-06-19 21:48:00,71.4,40.8,29.18,SE,135,0.0,0.0,33,0.00,CLR,,0.00,WeatherDisplay:10.37,2013-06-20 02:48:00,
2013-06-19 21:50:00,71.2,39.9,29.18,SE,135,0.0,0.0,32,0.00,CLR,,0.00,WeatherDisplay:10.37,2013-06-20 02:50:00,
2013-06-19 21:51:00,71.2,40.6,29.18,SE,135,0.0,0.0,33,0.00,CLR,,0.00,WeatherDisplay:10.37,2013-06-20 02:51:00,
2013-06-19 21:54:00,71.2,40.6,29.18,SE,135,0.0,0.0,33,0.00,CLR,,0.00,WeatherDisplay:10.37,2013-06-20 02:54:00,
2013-06-19 21:55:00,71.2,39.9,29.18,SE,135,0.0,0.0,32,0.00,CLR,,0.00,WeatherDisplay:10.37,2013-06-20 02:55:00,
2013-06-19 21:56:00,71.2,39.9,29.18,South,180,0.0,0.0,32,0.00,CLR,,0.00,WeatherDisplay:10.37,2013-06-20 02:56:00,
2013-06-19 21:57:00,71.2,39.9,29.18,South,180,1.1,0.0,32,0.00,CLR,,0.00,WeatherDisplay:10.37,2013-06-20 02:57:00,
2013-06-19 22:00:00,71.1,39.7,29.18,SSE,158,0.0,0.0,32,0.00,CLR,,0.00,WeatherDisplay:10.37,2013-06-20 03:00:00,
2013-06-19 22:01:00,71.1,39.7,29.18,SSE,158,0.0,0.0,32,0.00,CLR,,0.00,WeatherDisplay:10.37,2013-06-20 03:01:00,
2013-06-19 22:02:00,71.1,39.7,29.18,SSE,158,0.0,0.0,32,0.00,CLR,,0.00,WeatherDisplay:10.37,2013-06-20 03:02:00,
2013-06-19 22:03:00,71.1,39.7,29.18,SSE,158,0.0,0.0,32,0.00,CLR,,0.00,WeatherDisplay:10.37,2013-06-20 03:03:00,
2013-06-19 22:04:00,71.0,39.6,29.18,SSE,164,0.0,0.0,32,0.00,CLR,,0.00,WeatherDisplay:10.37,2013-06-20 03:04:00,
2013-06-19 22:05:00,70.9,39.5,29.18,SSE,158,0.0,0.0,32,0.00,CLR,,0.00,WeatherDisplay:10.37,2013-06-20 03:05:00,
2013-06-19 22:06:00,70.9,39.5,29.18,SSE,158,0.0,0.0,32,0.00,CLR,,0.00,WeatherDisplay:10.37,2013-06-20 03:06:00,
2013-06-19 22:08:00,70.9,39.5,29.18,SSE,158,0.0,0.0,32,0.00,CLR,,0.00,WeatherDisplay:10.37,2013-06-20 03:08:00,
2013-06-19 22:09:00,70.9,39.5,29.18,SSE,158,0.0,0.0,32,0.00,CLR,,0.00,WeatherDisplay:10.37,2013-06-20 03:09:00,
2013-06-19 22:12:00,70.9,40.3,29.18,SSE,158,0.0,0.0,33,0.00,CLR,,0.00,WeatherDisplay:10.37,2013-06-20 03:12:00,
2013-06-19 22:14:00,70.7,40.2,29.18,SSE,158,0.0,0.0,33,0.00,CLR,,0.00,WeatherDisplay:10.37,2013-06-20 03:14:00,
2013-06-19 22:15:00,70.7,40.2,29.18,SSE,158,0.0,0.0,33,0.00,CLR,,0.00,WeatherDisplay:10.37,2013-06-20 03:15:00,
2013-06-19 22:16:00,70.7,40.2,29.18,SSE,158,0.0,0.0,33,0.00,CLR,,0.00,WeatherDisplay:10.37,2013-06-20 03:16:00,
2013-06-19 22:17:00,70.7,40.2,29.18,SSE,158,0.0,0.0,33,0.00,CLR,,0.00,WeatherDisplay:10.37,2013-06-20 03:17:00,
2013-06-19 22:18:00,70.7,40.2,29.20,SSE,158,0.0,0.0,33,0.00,CLR,,0.00,WeatherDisplay:10.37,2013-06-20 03:18:00,
2013-06-19 22:19:00,70.5,40.0,29.20,SSE,158,0.0,0.0,33,0.00,CLR,,0.00,WeatherDisplay:10.37,2013-06-20 03:19:00,
2013-06-19 22:23:00,70.5,40.0,29.20,SSE,158,0.0,0.0,33,0.00,CLR,,0.00,WeatherDisplay:10.37,2013-06-20 03:23:00,
2013-06-19 22:24:00,70.5,40.0,29.20,SSE,158,0.0,0.0,33,0.00,CLR,,0.00,WeatherDisplay:10.37,2013-06-20 03:24:00,
2013-06-19 22:26:00,70.3,39.9,29.20,SSE,158,0.0,0.0,33,0.00,CLR,,0.00,WeatherDisplay:10.37,2013-06-20 03:26:00,
2013-06-19 22:28:00,70.3,39.9,29.20,SSE,158,0.0,0.0,33,0.00,CLR,,0.00,WeatherDisplay:10.37,2013-06-20 03:28:00,
2013-06-19 22:29:00,70.3,39.9,29.20,SSE,158,0.0,0.0,33,0.00,CLR,,0.00,WeatherDisplay:10.37,2013-06-20 03:29:00,
2013-06-19 22:32:00,70.2,39.7,29.20,SE,135,0.0,0.0,33,0.00,CLR,,0.00,WeatherDisplay:10.37,2013-06-20 03:32:00,
2013-06-19 22:34:00,70.2,39.7,29.20,SE,135,0.0,0.0,33,0.00,CLR,,0.00,WeatherDisplay:10.37,2013-06-20 03:34:00,
2013-06-19 22:36:00,70.2,39.7,29.20,SE,135,0.0,0.0,33,0.00,CLR,,0.00,WeatherDisplay:10.37,2013-06-20 03:36:00,
2013-06-19 22:39:00,70.2,39.7,29.20,SE,135,0.0,0.0,33,0.00,CLR,,0.00,WeatherDisplay:10.37,2013-06-20 03:39:00,
2013-06-19 22:40:00,70.2,39.7,29.20,SE,135,0.0,0.0,33,0.00,CLR,,0.00,WeatherDisplay:10.37,2013-06-20 03:40:00,
2013-06-19 22:41:00,70.0,39.5,29.20,SE,135,0.0,0.0,33,0.00,CLR,,0.00,WeatherDisplay:10.37,2013-06-20 03:41:00,
2013-06-19 22:44:00,70.0,40.3,29.20,SE,135,0.0,0.0,34,0.00,CLR,,0.00,WeatherDisplay:10.37,2013-06-20 03:44:00,
2013-06-19 22:45:00,70.0,40.3,29.20,SE,135,0.0,0.0,34,0.00,CLR,,0.00,WeatherDisplay:10.37,2013-06-20 03:45:00,
2013-06-19 22:46:00,70.0,40.3,29.20,SE,135,0.0,0.0,34,0.00,CLR,,0.00,WeatherDisplay:10.37,2013-06-20 03:46:00,
2013-06-19 22:50:00,69.8,40.2,29.20,SE,135,0.0,0.0,34,0.00,CLR,,0.00,WeatherDisplay:10.37,2013-06-20 03:50:00,
2013-06-19 22:51:00,69.8,40.2,29.20,SE,135,0.0,0.0,34,0.00,CLR,,0.00,WeatherDisplay:10.37,2013-06-20 03:51:00,
2013-06-19 22:52:00,69.8,40.2,29.20,SE,135,0.0,0.0,34,0.00,CLR,,0.00,WeatherDisplay:10.37,2013-06-20 03:52:00,
2013-06-19 22:53:00,69.8,40.2,29.20,SE,135,0.0,0.0,34,0.00,CLR,,0.00,WeatherDisplay:10.37,2013-06-20 03:53:00,
2013-06-19 22:55:00,69.8,40.2,29.20,SE,135,1.1,0.0,34,0.00,CLR,,0.00,WeatherDisplay:10.37,2013-06-20 03:55:00,
2013-06-19 22:56:00,69.8,40.2,29.20,SE,135,0.0,0.0,34,0.00,CLR,,0.00,WeatherDisplay:10.37,2013-06-20 03:56:00,
2013-06-19 22:58:00,69.8,40.2,29.20,SE,135,0.0,0.0,34,0.00,CLR,,0.00,WeatherDisplay:10.37,2013-06-20 03:58:00,
2013-06-19 22:59:00,69.8,40.9,29.20,SE,135,0.0,0.0,35,0.00,CLR,,0.00,WeatherDisplay:10.37,2013-06-20 03:59:00,
2013-06-19 23:01:00,69.8,40.9,29.20,East,90,0.0,0.0,35,0.00,CLR,,0.00,WeatherDisplay:10.37,2013-06-20 04:01:00,
2013-06-19 23:02:00,69.6,40.7,29.20,ENE,68,2.4,0.0,35,0.00,CLR,,0.00,WeatherDisplay:10.37,2013-06-20 04:02:00,
2013-06-19 23:07:00,69.4,41.3,29.18,NNE,22,1.1,0.0,36,0.00,CLR,,0.00,WeatherDisplay:10.37,2013-06-20 04:07:00,
2013-06-19 23:08:00,69.4,41.3,29.18,North,0,1.6,0.0,36,0.00,CLR,,0.00,WeatherDisplay:10.37,2013-06-20 04:08:00,
2013-06-19 23:10:00,69.3,41.2,29.18,NNE,22,1.1,0.0,36,0.00,CLR,,0.00,WeatherDisplay:10.37,2013-06-20 04:10:00,
2013-06-19 23:11:00,69.3,41.2,29.18,NNE,22,0.0,0.0,36,0.00,CLR,,0.00,WeatherDisplay:10.37,2013-06-20 04:11:00,
2013-06-19 23:12:00,69.3,41.2,29.18,North,0,0.0,0.0,36,0.00,CLR,,0.00,WeatherDisplay:10.37,2013-06-20 04:12:00,
2013-06-19 23:13:00,69.3,41.2,29.18,North,0,0.0,0.0,36,0.00,CLR,,0.00,WeatherDisplay:10.37,2013-06-20 04:13:00,
2013-06-19 23:14:00,69.3,41.2,29.18,NE,36,0.0,0.0,36,0.00,CLR,,0.00,WeatherDisplay:10.37,2013-06-20 04:14:00,
2013-06-19 23:15:00,69.3,41.2,29.18,East,90,2.6,0.0,36,0.00,CLR,,0.00,WeatherDisplay:10.37,2013-06-20 04:15:00,
2013-06-19 23:17:00,69.3,41.2,29.18,NE,45,2.3,2.3,36,0.00,CLR,,0.00,WeatherDisplay:10.37,2013-06-20 04:17:00,
2013-06-19 23:19:00,69.3,41.9,29.20,NE,42,1.0,0.0,37,0.00,CLR,,0.00,WeatherDisplay:10.37,2013-06-20 04:19:00,
2013-06-19 23:20:00,69.4,42.0,29.20,SE,135,4.9,4.9,37,0.00,CLR,,0.00,WeatherDisplay:10.37,2013-06-20 04:20:00,
2013-06-19 23:21:00,69.4,42.0,29.20,SE,135,4.6,4.6,37,0.00,CLR,,0.00,WeatherDisplay:10.37,2013-06-20 04:21:00,
2013-06-19 23:22:00,69.4,42.0,29.20,SE,135,3.5,3.5,37,0.00,CLR,,0.00,WeatherDisplay:10.37,2013-06-20 04:22:00,
2013-06-19 23:24:00,69.4,42.7,29.20,ESE,112,5.8,5.8,38,0.00,CLR,,0.00,WeatherDisplay:10.37,2013-06-20 04:24:00,
2013-06-19 23:26:00,69.4,42.7,29.20,ESE,112,4.6,4.6,38,0.00,CLR,,0.00,WeatherDisplay:10.37,2013-06-20 04:26:00,
2013-06-19 23:27:00,69.4,42.7,29.20,ENE,68,2.6,2.6,38,0.00,CLR,,0.00,WeatherDisplay:10.37,2013-06-20 04:27:00,
2013-06-19 23:29:00,69.4,42.7,29.20,NNE,22,2.3,2.3,38,0.00,CLR,,0.00,WeatherDisplay:10.37,2013-06-20 04:29:00,
2013-06-19 23:31:00,69.4,42.7,29.20,ESE,112,3.6,3.6,38,0.00,CLR,,0.00,WeatherDisplay:10.37,2013-06-20 04:31:00,
2013-06-19 23:32:00,69.4,42.7,29.20,SSE,158,3.6,3.6,38,0.00,CLR,,0.00,WeatherDisplay:10.37,2013-06-20 04:32:00,
2013-06-19 23:33:00,69.4,42.7,29.20,ENE,68,3.5,3.5,38,0.00,CLR,,0.00,WeatherDisplay:10.37,2013-06-20 04:33:00,
2013-06-19 23:35:00,69.6,42.9,29.20,ESE,112,2.4,2.4,38,0.00,CLR,,0.00,WeatherDisplay:10.37,2013-06-20 04:35:00,
2013-06-19 23:36:00,69.6,42.9,29.20,SE,135,4.3,4.3,38,0.00,CLR,,0.00,WeatherDisplay:10.37,2013-06-20 04:36:00,
2013-06-19 23:38:00,69.6,42.9,29.20,ESE,112,2.4,0.0,38,0.00,CLR,,0.00,WeatherDisplay:10.37,2013-06-20 04:38:00,
2013-06-19 23:41:00,69.4,42.7,29.20,SSE,158,3.5,3.5,38,0.00,CLR,,0.00,WeatherDisplay:10.37,2013-06-20 04:41:00,
2013-06-19 23:43:00,69.4,42.7,29.20,East,90,3.5,3.5,38,0.00,CLR,,0.00,WeatherDisplay:10.37,2013-06-20 04:43:00,
2013-06-19 23:44:00,69.4,42.7,29.20,East,90,0.0,0.0,38,0.00,CLR,,0.00,WeatherDisplay:10.37,2013-06-20 04:44:00,
2013-06-19 23:46:00,69.4,43.4,29.20,ENE,68,5.8,5.8,39,0.00,CLR,,0.00,WeatherDisplay:10.37,2013-06-20 04:46:00,
2013-06-19 23:49:00,69.4,42.7,29.20,ESE,112,3.5,3.5,38,0.00,CLR,,0.00,WeatherDisplay:10.37,2013-06-20 04:49:00,
2013-06-19 23:50:00,69.4,43.4,29.20,SSE,158,2.3,2.3,39,0.00,CLR,,0.00,WeatherDisplay:10.37,2013-06-20 04:50:00,
2013-06-19 23:51:00,69.3,43.2,29.20,NE,45,2.3,2.3,39,0.00,CLR,,0.00,WeatherDisplay:10.37,2013-06-20 04:51:00,
2013-06-19 23:53:00,69.3,43.2,29.20,SSE,158,4.6,4.6,39,0.00,CLR,,0.00,WeatherDisplay:10.37,2013-06-20 04:53:00,
2013-06-19 23:54:00,69.3,43.2,29.20,ESE,112,5.8,5.8,39,0.00,CLR,,0.00,WeatherDisplay:10.37,2013-06-20 04:54:00,
2013-06-19 23:55:00,69.3,43.2,29.20,SE,135,3.5,3.5,39,0.00,CLR,,0.00,WeatherDisplay:10.37,2013-06-20 04:55:00,
2013-06-19 23:58:00,69.3,43.2,29.20,SSE,158,2.3,0.0,39,0.00,CLR,,0.00,WeatherDisplay:10.37,2013-06-20 04:58:00,
2013-06-19 23:59:00,69.3,43.2,29.20,East,90,3.5,3.5,39,0.00,CLR,,0.00,WeatherDisplay:10.37,2013-06-20 04:59:00,